GFSWCAN_925_temp_000.txt.gz
Temp
5 5 5 5 5 5 5 5 6 5 6 6 6 6 7 7 7 6 6 6 6 7 8 9 10 10 10 11 11 12 13 13 13 15 16 17 18 20 22 22 21 22 21 20 19 22 25 20 22 25 22 20 21 21
5 5 5 5 5 6 6 6 5 6 6 6 6 7 7 6 6 6 6 6 6 5 7 8 8 9 10 11 10 11 12 12 12 13 14 14 17 17 18 21 22 22 21 20 19 20 18 17 18 19 21 23 22 20
5 6 6 6 5 6 6 6 6 6 6 6 6 7 6 7 7 6 6 6 6 6 7 7 9 12 11 10 11 10 12 12 13 11 12 13 16 15 18 19 22 22 19 20 19 20 18 17 18 19 19 19 19 19
5 5 5 5 6 5 6 6 7 6 6 6 6 7 6 6 6 6 6 6 6 6 6 7 10 10 13 12 11 11 13 13 12 12 12 12 15 14 16 17 18 18 21 20 19 19 19 19 18 17 18 19 19 19
5 5 5 5 5 5 6 6 6 6 6 6 6 6 6 6 6 6 6 6 6 6 7 7 9 11 13 12 11 11 11 11 12 12 12 15 14 15 13 15 16 14 16 19 18 19 19 17 18 18 19 19 19 19
5 5 6 6 5 6 6 6 6 6 6 6 6 6 6 6 6 6 6 6 6 6 7 7 8 9 12 12 12 10 11 10 10 11 13 14 14 15 15 16 15 14 15 15 16 15 16 17 18 19 18 18 18 18
5 6 6 6 6 6 6 6 6 6 6 6 6 6 6 6 6 6 7 5 6 6 7 7 7 10 13 14 12 11 11 11 11 12 14 14 15 13 14 14 14 14 14 15 15 16 17 16 16 17 17 18 17 17
6 6 6 6 6 6 6 6 6 6 6 6 6 6 6 6 6 6 8 8 7 7 6 6 8 10 14 13 13 10 12 11 12 14 13 14 14 14 14 14 14 15 16 16 15 16 15 15 16 16 16 16 16 16
5 5 5 6 6 6 6 6 6 6 6 6 6 6 6 6 5 8 8 9 8 8 7 9 9 11 11 12 11 12 11 14 12 13 14 14 13 13 13 13 14 14 14 15 15 15 15 15 15 15 15 14 14 15
6 5 6 6 6 6 6 6 6 6 6 6 6 7 6 7 8 9 8 6 6 6 5 7 7 9 11 12 13 13 12 13 13 13 14 15 14 13 12 12 12 12 13 14 15 14 13 13 13 13 14 14 14 14
6 6 6 6 6 6 6 6 6 6 6 6 6 6 8 8 8 6 8 8 8 8 7 8 8 10 11 13 13 13 13 12 14 15 15 15 14 13 12 13 12 12 13 12 12 12 12 12 12 13 13 13 13 13
6 6 6 6 6 6 6 6 6 6 6 6 5 5 6 6 6 8 7 8 9 11 10 10 12 9 10 10 13 13 15 14 16 14 15 15 13 12 12 12 12 11 13 13 13 12 13 13 13 12 12 12 12 12
6 6 6 6 6 6 6 6 6 6 7 6 5 5 5 5 7 9 9 11 10 11 11 10 12 11 10 11 13 14 16 14 13 15 14 13 13 12 12 12 12 12 13 13 13 13 13 13 13 12 12 12 12 12
6 6 6 6 6 6 7 6 6 6 6 5 6 7 7 7 9 9 10 10 10 10 10 10 12 12 10 14 13 16 14 15 16 15 13 13 12 12 12 11 12 12 12 12 12 12 12 12 12 13 12 12 12 12
6 6 6 6 6 7 6 6 6 6 5 6 7 8 7 8 9 9 9 9 10 9 9 11 12 12 11 14 13 15 15 14 14 14 13 12 12 11 12 12 11 11 11 11 11 12 12 12 11 11 12 12 12 12
7 7 6 6 7 7 7 7 6 6 6 7 8 9 9 9 9 9 9 10 9 8 9 10 12 13 12 11 13 13 15 13 13 12 11 11 11 11 11 11 11 11 10 10 11 12 12 12 11 11 12 13 13 12
7 6 6 6 7 7 7 6 6 7 8 8 8 8 8 8 8 8 8 8 8 9 10 11 12 12 11 12 12 12 13 12 11 11 9 10 10 10 10 10 11 11 11 11 11 12 12 13 13 12 11 13 13 13
7 7 7 7 7 7 7 7 6 8 8 8 8 8 8 7 6 7 8 8 9 9 10 11 10 11 11 12 12 11 10 9 9 9 9 9 9 10 10 10 11 11 11 11 12 12 13 13 11 10 12 12 13 14
7 7 7 7 7 6 5 6 7 7 8 7 7 7 6 7 6 6 7 8 7 8 9 10 10 11 10 10 10 9 9 9 9 9 9 9 10 10 11 11 11 12 12 12 12 12 13 13 13 13 13 13 12 13
8 8 8 8 8 7 6 5 7 6 7 6 5 6 5 7 6 6 7 7 6 8 9 10 10 9 9 9 8 9 9 8 8 9 10 10 11 11 11 10 11 11 11 13 12 12 13 14 14 14 13 13 12 13
8 8 8 8 8 7 5 5 6 5 5 5 5 5 6 5 6 6 6 5 8 7 9 8 9 8 8 8 9 9 8 8 9 9 10 10 11 10 11 11 10 11 10 10 9 10 10 10 11 13 14 14 14 14
7 7 7 7 6 5 5 6 5 4 5 5 5 5 6 6 6 5 4 6 7 7 7 7 7 7 8 8 8 10 10 10 10 10 10 10 10 11 10 10 10 9 9 9 9 9 10 12 12 13 13 13 14 14
7 7 7 7 5 3 4 6 6 6 6 6 5 7 6 7 6 5 7 6 6 5 6 7 9 9 9 10 11 11 11 11 11 11 10 10 11 11 10 10 10 9 9 10 11 11 11 12 12 12 12 12 12 12
7 6 5 4 5 6 6 7 6 7 7 8 7 7 7 7 7 9 10 9 9 8 9 10 10 11 11 11 11 10 10 11 10 10 10 10 8 9 10 10 10 11 11 11 11 11 11 10 10 11 10 10 10 9
5 5 5 4 3 6 7 7 8 8 8 8 7 7 8 8 9 10 10 11 10 10 10 10 10 10 10 10 9 10 11 12 10 9 10 12 10 10 9 10 10 11 11 10 9 9 9 10 10 10 9 9 8 8
7 7 6 8 5 6 7 9 8 8 9 9 9 9 7 9 12 12 11 10 10 10 11 11 10 10 8 8 9 9 12 13 13 11 12 12 11 10 8 8 8 10 10 9 9 9 9 9 9 9 9 8 8 8
8 10 8 5 6 6 8 8 8 8 10 11 9 10 11 12 13 12 10 9 10 12 12 13 12 11 10 11 13 13 13 13 13 12 12 12 12 11 11 10 9 10 9 10 9 8 8 8 8 9 8 8 8 8
9 9 10 9 8 8 10 10 11 11 12 10 11 13 14 14 14 12 10 13 12 13 13 14 14 13 13 13 13 13 13 13 13 12 11 11 11 11 10 9 9 9 9 9 8 8 8 8 7 7 7 7 7 7
9 9 9 10 9 9 9 12 13 12 11 11 13 13 13 12 10 10 13 13 14 14 13 12 12 13 13 12 11 10 10 10 10 8 8 7 7 9 8 8 8 8 8 8 7 6 6 5 5 4 4 4 4 4
12 10 12 14 14 15 14 11 13 12 11 11 11 11 12 11 10 11 12 13 12 10 10 11 10 10 9 9 9 9 8 8 8 7 6 6 6 6 6 6 6 6 6 5 5 4 4 4 4 3 3 2 2 2
11 11 12 12 14 13 13 12 12 13 13 12 12 13 12 11 11 10 10 11 11 10 10 9 8 8 7 7 6 6 6 7 7 7 7 7 6 5 5 4 4 4 4 3 3 2 2 1 1 1 1 1 1 1
11 13 12 13 13 12 11 12 12 13 13 13 12 11 11 10 9 9 9 9 8 9 8 7 7 6 6 6 6 6 5 5 5 6 5 5 4 4 4 3 3 2 2 2 1 1 0 0 0 -0 -0 -0 -0 -0
11 11 12 11 12 13 12 12 12 12 12 12 11 11 10 10 10 9 9 9 8 8 8 7 6 6 6 5 5 4 4 3 3 3 3 3 2 2 2 1 1 1 0 -0 -0 -1 -1 -1 -1 -1 -1 -1 -1 -1

GFSWCAN_925_temp_003.txt.gz
Temp
5 5 5 5 6 6 5 5 6 6 5 5 6 6 6 6 6 6 6 6 6 7 9 10 10 10 11 11 11 13 14 15 15 18 20 22 23 24 25 26 25 24 22 21 22 24 26 23 24 28 26 24 25 26
5 5 5 5 5 5 5 5 6 6 6 6 6 6 6 6 6 6 6 6 6 6 8 8 8 8 9 11 11 12 12 12 13 15 17 17 20 22 22 25 25 23 23 20 22 22 22 22 21 24 26 25 26 25
5 5 5 5 5 5 5 5 6 6 6 6 6 6 6 6 6 6 6 6 6 6 9 9 10 10 10 9 10 10 13 14 14 14 14 15 17 19 22 23 24 22 24 23 19 20 21 21 23 23 23 24 24 25
5 5 5 5 5 5 5 5 6 6 6 6 6 6 6 6 6 6 6 6 6 7 7 10 10 10 11 11 10 10 13 13 13 12 13 14 17 18 20 20 22 19 19 21 23 22 21 22 21 21 22 22 23 23
5 5 5 5 5 5 5 6 6 6 6 6 6 6 6 6 6 6 6 6 6 7 7 8 10 11 11 11 11 11 11 11 13 13 13 17 18 18 18 18 16 15 17 22 24 20 20 21 21 20 19 20 22 22
5 6 6 7 6 6 6 6 6 6 6 6 6 7 6 6 7 6 7 5 5 5 6 8 11 11 12 11 11 11 12 12 13 14 15 17 17 17 18 17 15 15 15 16 18 18 17 20 20 21 21 21 21 21
6 6 6 6 6 6 6 7 7 6 6 6 7 7 7 6 6 7 7 5 5 5 7 9 11 13 13 13 13 13 13 14 14 15 15 18 18 18 15 14 15 16 16 16 18 18 18 18 19 19 19 20 20 20
6 6 6 6 6 6 6 6 6 6 6 6 7 6 6 6 6 6 7 7 6 6 8 8 11 13 14 16 16 14 15 14 14 17 17 17 14 15 14 14 15 16 16 16 16 17 17 17 16 17 18 19 19 20
6 6 6 6 6 6 6 6 6 6 6 6 6 6 6 6 7 7 7 7 7 7 9 9 11 14 15 15 15 15 15 17 16 17 18 17 16 14 13 13 13 13 15 15 14 14 14 15 16 16 18 19 19 18
6 6 6 6 6 6 6 6 6 6 6 6 7 7 8 8 7 8 7 8 8 9 8 8 11 12 13 15 16 17 16 18 17 17 18 15 13 13 12 12 12 12 13 14 15 15 15 16 16 17 17 18 18 18
6 6 6 6 6 6 6 6 6 7 7 6 7 8 7 8 8 9 10 10 10 10 10 10 11 12 13 14 16 16 17 17 18 17 18 15 14 13 12 13 13 14 15 15 15 15 16 17 17 17 17 17 18 18
6 6 6 6 6 6 6 6 6 6 6 5 5 5 5 8 9 9 10 11 11 12 13 12 15 12 12 13 16 16 18 18 18 18 18 15 14 14 14 14 15 15 16 16 16 16 16 16 16 16 16 16 16 16
6 6 6 6 6 6 7 6 6 6 6 6 6 7 8 8 9 9 11 13 13 14 14 13 15 13 14 15 16 17 18 17 17 17 15 14 13 14 14 15 15 15 16 16 16 16 16 17 16 16 16 15 15 16
6 6 6 6 7 7 7 6 6 6 6 7 7 8 8 9 9 10 11 11 12 12 12 12 13 14 14 16 17 18 17 17 17 14 13 13 13 13 15 15 15 15 15 16 16 17 17 16 16 16 15 15 15 15
7 7 7 7 7 6 6 6 6 6 5 7 6 7 7 8 9 11 11 11 12 11 11 13 15 14 16 17 16 17 17 15 14 13 12 13 13 14 15 15 15 15 15 15 15 16 16 16 16 16 15 15 14 15
7 7 7 7 7 7 8 7 7 7 6 7 8 9 9 10 12 12 12 13 13 11 12 15 15 14 15 15 15 15 15 12 13 13 13 13 13 14 14 15 15 15 15 15 15 15 15 16 15 14 14 15 15 14
8 7 7 7 7 8 8 7 7 9 9 10 10 10 10 9 10 11 11 12 12 13 14 15 14 12 14 15 14 13 11 11 12 13 13 13 13 13 14 15 15 14 14 14 14 15 14 14 14 15 16 14 13 14
8 8 8 7 7 8 8 7 9 11 10 10 10 10 9 10 10 12 11 11 12 13 14 13 14 14 13 13 12 12 13 13 13 13 14 13 13 13 13 14 14 14 14 14 14 14 15 16 17 17 14 13 14 15
8 8 8 8 7 6 7 9 8 10 10 10 10 10 10 11 11 10 11 11 10 11 13 14 14 13 12 12 13 13 13 13 13 13 12 12 12 13 13 13 13 14 13 13 14 15 15 14 15 15 16 16 17 17
9 8 8 8 8 7 9 8 7 9 10 9 9 10 9 11 10 11 12 11 11 14 14 14 13 13 12 12 12 12 12 11 12 14 14 14 13 13 13 13 13 13 14 14 14 13 15 15 15 14 14 15 16 17
8 8 8 8 8 7 8 8 9 8 8 9 9 9 10 10 11 10 10 10 13 11 13 12 13 12 11 11 10 11 11 11 12 12 13 12 11 12 13 13 13 13 12 13 14 14 14 14 13 14 14 15 14 15
7 7 7 7 7 7 8 6 8 8 9 10 10 9 10 10 10 10 8 12 12 11 11 12 12 12 12 12 11 11 11 11 12 12 11 11 12 14 14 13 14 14 13 13 13 13 13 13 12 13 13 13 14 14
7 7 7 7 8 7 7 7 9 9 8 9 10 10 10 10 10 11 10 9 9 8 9 9 10 10 11 11 12 12 12 12 13 13 13 13 12 12 12 12 13 13 14 12 12 12 12 11 12 12 12 13 13 13
6 6 7 6 7 7 8 8 8 8 9 9 8 8 9 8 8 10 10 11 11 10 11 12 12 14 14 13 12 12 11 12 14 13 11 12 14 12 12 12 12 12 11 12 12 12 12 11 11 12 12 12 12 12
6 6 7 6 6 8 9 9 9 10 10 10 10 11 10 10 12 13 12 13 12 12 12 12 12 12 14 15 15 14 11 13 14 16 13 13 13 12 12 12 12 11 10 11 11 11 11 11 11 11 11 11 11 11
7 8 7 9 9 9 10 11 11 11 11 11 12 11 11 12 14 14 14 12 12 12 12 13 14 14 13 13 14 14 13 12 13 15 13 12 12 13 13 13 13 12 10 10 10 10 11 11 11 10 11 11 10 10
10 12 10 7 8 9 10 10 10 11 12 13 12 13 14 14 15 15 13 12 13 11 11 12 13 14 13 13 13 12 12 11 11 10 9 10 10 9 10 11 11 9 8 9 9 9 9 9 10 9 9 10 10 9
11 10 11 12 10 10 12 13 13 14 14 13 13 15 15 15 13 12 13 12 11 12 12 11 11 12 12 11 10 10 10 11 12 11 11 10 9 8 7 8 7 7 6 5 7 7 7 7 7 7 7 7 7 6
10 12 10 13 12 12 13 14 16 15 14 15 15 14 13 12 11 11 11 12 12 12 11 11 11 12 12 11 9 8 8 9 10 11 10 11 11 9 7 6 6 6 6 6 5 4 4 4 4 4 5 5 5 5
14 13 14 15 15 16 16 15 16 15 14 14 13 13 12 11 10 10 11 11 11 11 10 10 9 9 10 10 10 10 8 7 7 8 9 9 7 5 5 5 5 5 4 4 4 4 3 4 4 4 3 3 3 3
14 15 15 15 16 16 15 15 15 16 15 14 14 12 11 11 10 8 8 9 9 10 9 9 8 7 7 7 7 7 8 6 5 5 5 5 4 4 3 3 3 3 3 3 3 3 2 2 3 2 2 2 2 2
14 15 15 15 16 15 14 13 14 15 14 11 10 10 10 10 9 8 9 9 9 9 8 8 7 6 6 6 5 4 3 4 3 3 3 3 3 2 2 2 2 2 1 1 1 1 1 1 1 1 1 1 1 1
15 15 15 15 15 16 14 15 14 13 13 11 11 11 11 11 11 10 8 8 8 8 7 6 6 5 4 4 3 3 2 1 1 1 1 1 0 0 1 0 0 0 0 0 1 1 1 1 1 1 1 1 1 1

GFSWCAN_925_temp_006.txt.gz
Temp
5 5 5 5 5 5 5 6 6 6 6 6 6 6 6 6 6 6 6 6 6 6 7 10 13 12 11 13 14 15 14 15 17 18 22 26 27 29 29 30 27 28 28 30 29 28 28 25 28 28 28 29 30 32
5 5 5 5 5 5 5 5 5 6 6 6 6 6 6 6 6 6 5 6 6 6 8 9 10 11 12 13 13 14 13 14 16 17 20 22 24 27 28 28 29 29 30 30 28 30 24 25 24 25 29 29 30 31
5 5 5 5 5 5 5 5 5 6 6 7 7 6 6 6 6 6 6 6 6 8 9 12 13 13 12 12 12 13 14 14 16 16 17 18 19 24 25 27 29 28 29 28 26 25 24 24 24 26 28 29 30 30
5 5 6 6 6 6 6 5 6 6 6 6 6 6 6 6 6 6 5 6 7 8 9 14 14 14 13 14 13 13 14 14 14 15 15 16 19 23 23 23 25 24 25 26 25 23 24 24 24 24 25 27 28 28
6 6 6 6 6 6 6 6 6 7 7 6 6 6 7 6 7 6 6 8 7 7 11 12 13 15 15 13 13 13 13 13 12 13 13 17 22 21 23 23 17 16 19 26 25 22 20 18 21 22 23 25 25 26
6 6 6 6 6 6 7 7 7 7 6 6 6 7 7 7 7 8 10 6 7 8 10 12 15 15 15 14 14 14 14 13 13 16 14 12 20 20 18 16 16 16 18 19 23 21 18 16 19 22 22 23 24 25
6 6 6 6 6 6 6 6 6 6 6 6 6 6 6 6 7 9 9 8 7 8 8 9 15 17 16 15 15 15 15 15 16 18 14 12 18 19 16 15 16 17 18 19 20 18 16 16 15 18 22 23 22 24
6 6 6 6 6 6 6 6 6 6 6 6 6 6 6 7 7 9 8 6 6 7 9 9 13 15 17 18 17 17 16 15 18 19 13 13 16 17 14 15 16 16 16 14 14 17 18 17 14 16 21 23 22 20
6 7 7 6 6 6 6 6 6 6 6 7 7 7 7 8 10 10 7 6 6 7 7 10 12 14 19 19 19 18 18 17 18 16 16 17 15 14 13 14 14 16 16 15 14 14 14 16 16 17 18 21 22 22
6 7 6 6 6 6 6 6 7 7 7 7 8 10 11 11 8 8 7 10 10 9 9 11 15 15 16 19 19 20 20 17 15 16 18 14 13 13 13 13 13 13 14 14 13 13 14 14 15 17 18 18 20 21
6 6 6 6 6 7 7 7 7 7 8 9 9 10 10 9 10 13 12 10 10 11 13 13 14 14 16 16 18 21 20 19 16 17 16 14 13 13 13 13 13 13 13 14 15 14 14 17 19 19 18 20 20 21
6 6 6 7 7 7 7 7 6 7 7 7 6 6 8 12 12 11 12 12 10 14 16 15 15 15 14 17 19 20 21 21 19 20 18 13 12 12 13 14 14 14 14 15 17 18 18 18 18 18 18 18 19 19
7 6 7 7 7 7 7 6 6 6 6 7 9 10 11 12 10 11 12 14 13 15 17 16 16 17 17 19 20 21 20 18 20 18 16 14 13 14 13 15 16 16 17 17 18 19 19 19 19 18 18 18 18 18
7 7 7 7 7 7 6 7 7 6 7 9 9 8 7 9 10 11 11 13 15 16 17 17 17 15 20 20 20 20 20 20 18 16 14 13 14 14 14 16 18 18 18 18 19 19 19 20 20 19 18 18 19 18
8 8 8 8 7 7 7 8 8 6 8 7 6 7 8 9 11 14 15 16 17 17 17 19 19 19 19 19 20 20 19 16 14 13 14 15 15 16 16 17 17 18 19 18 19 19 19 19 20 19 18 18 18 18
8 9 8 8 8 8 9 8 9 9 9 10 10 10 12 13 15 16 16 17 17 17 18 19 18 18 18 18 16 15 15 13 13 12 13 15 16 16 16 17 18 18 18 19 19 19 19 19 19 18 19 18 18 18
9 9 8 8 8 8 9 9 11 12 13 13 13 14 14 15 15 16 16 16 17 19 18 18 16 15 17 15 13 11 10 9 13 13 14 15 15 16 16 17 18 18 18 18 19 19 18 19 19 19 19 18 18 18
9 8 8 8 8 9 10 11 13 14 14 15 14 14 14 15 15 15 15 16 16 17 17 16 17 14 13 12 13 12 12 13 13 15 15 16 16 16 17 17 17 18 18 18 18 19 19 19 20 20 19 19 20 20
8 8 8 8 7 8 12 13 12 14 14 14 14 15 15 16 15 15 16 15 15 16 17 17 16 14 13 13 13 14 14 15 15 17 17 16 16 16 16 17 17 17 17 17 17 19 19 17 18 19 19 20 20 20
9 8 8 9 8 11 13 12 12 13 13 13 14 14 15 15 16 16 17 17 18 17 16 15 15 15 15 16 16 16 17 16 15 16 16 16 18 17 16 17 18 17 18 18 17 17 18 18 18 18 18 18 19 19
8 9 8 9 10 11 12 12 13 12 12 14 14 14 15 16 16 16 15 17 17 16 16 16 16 16 15 15 15 15 16 16 15 15 15 14 16 17 17 17 17 17 18 17 18 17 17 17 16 16 17 17 17 17
8 7 9 9 11 11 12 12 12 13 13 14 14 15 14 14 14 14 15 14 13 12 13 14 14 15 15 15 15 14 14 15 15 14 13 14 17 17 17 17 17 17 16 16 16 16 16 15 14 15 15 15 15 16
7 7 9 10 10 9 10 11 12 11 11 13 14 13 12 12 12 12 11 11 11 13 12 13 14 15 15 15 15 15 15 16 16 15 15 15 16 15 16 16 16 16 16 15 15 15 15 14 14 14 15 15 15 15
7 8 10 10 10 11 12 13 13 13 13 12 10 10 11 12 12 12 12 12 13 14 14 14 15 15 17 17 17 16 16 17 18 18 17 17 18 16 16 16 16 15 14 15 15 14 14 14 13 14 14 14 14 14
9 8 10 9 11 12 14 15 14 14 14 14 13 14 14 13 14 14 14 14 15 15 15 15 17 17 17 17 17 16 15 16 16 18 16 16 16 17 17 16 15 14 13 13 14 13 13 13 14 13 13 13 13 12
9 12 11 14 14 14 15 16 15 15 15 16 15 16 16 16 17 15 14 13 13 16 16 16 16 16 16 15 16 15 15 14 14 15 14 14 14 15 15 16 16 14 11 12 12 12 12 12 12 12 12 12 12 12
14 16 15 12 13 13 15 15 14 15 16 16 16 17 18 16 15 14 14 14 15 14 14 15 15 15 15 14 13 13 13 13 13 13 12 12 12 11 11 12 11 9 10 9 10 11 10 11 11 11 11 11 11 10
15 15 16 17 15 15 16 17 17 17 18 17 17 17 16 15 13 14 15 14 15 14 14 14 14 13 13 12 11 11 12 12 12 13 13 13 13 11 9 10 9 8 8 7 7 7 7 7 8 8 8 8 8 8
16 17 15 17 17 17 17 18 19 18 18 18 17 16 14 13 13 12 11 11 10 11 10 10 12 12 12 12 12 12 11 10 11 11 11 12 11 9 8 8 8 7 7 7 6 6 5 5 5 5 6 6 6 6
19 18 18 18 18 18 18 19 18 18 17 15 13 11 9 9 9 8 8 8 9 9 11 12 11 11 11 11 11 10 10 9 8 8 10 9 8 7 7 6 6 6 6 6 6 5 5 4 5 5 5 5 5 4
19 20 19 19 18 18 18 18 17 16 15 12 10 10 10 9 8 8 8 9 10 12 12 12 11 10 9 9 9 9 9 7 6 6 5 6 6 5 5 4 4 4 4 4 4 4 4 4 5 4 4 4 3 3
20 19 18 19 18 17 17 17 17 14 13 11 11 12 12 13 12 11 10 12 13 12 10 10 10 9 7 7 7 6 4 5 3 3 2 2 2 2 3 3 3 3 3 3 4 4 4 3 4 3 3 3 3 3
20 21 20 20 20 19 19 17 16 15 15 14 13 13 14 14 12 11 10 10 10 10 9 9 8 7 6 6 5 5 5 5 2 1 0 -0 -1 -1 1 1 2 2 2 3 3 3 3 3 3 2 2 2 2 2

GFSWCAN_925_temp_009.txt.gz
Temp
6 6 5 6 6 5 5 5 6 6 6 6 7 6 6 6 6 6 7 7 6 6 7 11 13 13 13 15 14 11 18 15 17 17 19 22 24 26 28 29 29 29 30 30 31 30 30 31 32 32 30 31 33 33
6 6 6 6 6 6 6 6 6 6 6 7 7 6 7 6 6 6 6 7 6 5 9 10 11 12 13 16 16 16 16 14 17 16 17 17 19 22 27 27 32 31 32 32 32 32 29 29 28 29 31 32 32 33
6 6 6 6 6 7 6 6 6 6 7 7 7 6 6 6 6 6 6 6 6 6 9 13 15 15 14 14 14 14 17 17 17 16 16 16 17 18 22 27 31 30 33 33 30 28 27 28 29 30 30 31 32 33
6 6 6 6 6 6 6 7 7 7 7 7 6 6 6 6 6 6 6 6 6 7 10 14 17 17 16 17 15 15 16 17 16 17 16 16 17 16 18 18 24 18 19 31 28 27 27 26 26 27 28 30 30 32
6 6 6 6 6 6 7 7 7 7 7 6 6 6 7 7 7 6 6 7 6 6 10 13 15 16 17 17 17 16 16 16 16 14 12 16 18 16 19 19 16 16 17 20 26 27 25 24 25 26 26 25 27 27
6 6 6 6 6 7 7 7 6 6 6 6 6 7 7 7 7 8 8 7 8 8 10 13 17 18 18 17 17 17 17 17 15 11 12 16 19 19 17 17 18 17 17 22 22 25 23 22 23 22 25 26 26 26
7 7 7 7 6 7 6 6 6 6 6 7 7 7 7 7 7 8 8 9 9 10 9 10 13 18 19 18 18 18 18 16 12 11 16 15 16 14 16 16 17 17 19 20 22 22 20 21 17 20 22 24 23 25
7 7 7 7 7 7 7 7 7 7 7 7 7 7 7 7 7 9 9 8 8 8 8 9 13 15 19 19 18 19 17 15 13 12 16 13 13 15 15 14 16 16 17 18 19 20 19 18 16 14 16 17 23 23
7 7 7 7 7 7 7 7 7 7 7 8 8 8 8 9 12 9 8 7 7 7 7 8 10 12 20 15 16 19 20 19 18 18 15 13 13 14 14 13 14 15 14 15 16 16 16 16 15 14 15 16 19 22
7 6 6 6 7 7 7 7 7 8 8 9 8 10 12 13 10 9 8 8 7 9 9 11 17 13 17 20 20 20 20 18 17 14 13 14 13 13 13 13 13 14 13 14 14 14 14 13 13 15 14 15 17 18
6 6 7 7 7 7 7 6 6 8 10 11 13 13 12 11 12 12 10 10 11 11 14 15 15 16 18 15 17 16 15 17 14 13 15 13 13 13 13 13 13 13 14 13 13 14 14 14 14 14 16 18 18 20
7 7 7 7 7 7 6 6 6 8 10 8 8 8 10 12 12 12 12 12 12 10 12 12 16 17 18 18 16 19 18 14 16 14 14 13 12 13 14 13 14 14 15 15 17 17 18 19 20 18 17 18 20 20
8 8 8 8 8 7 7 7 7 7 8 9 9 10 11 12 11 11 11 12 13 14 15 14 15 19 19 17 14 14 20 17 19 15 13 12 13 13 13 14 16 16 17 17 17 18 20 20 20 20 20 20 20 20
8 9 9 9 8 8 8 8 8 8 9 11 10 9 8 10 11 13 13 15 16 18 18 17 18 19 21 21 21 19 18 17 17 14 14 13 13 14 15 17 18 19 20 20 20 19 21 21 21 21 20 20 19 19
9 10 9 9 9 9 8 9 9 10 10 8 8 8 10 12 13 14 15 18 20 21 21 16 20 21 21 20 21 19 18 14 13 14 13 13 14 15 17 18 19 20 19 19 20 20 20 21 21 21 20 20 20 20
10 11 10 10 10 10 10 10 12 12 12 10 11 12 15 15 17 18 19 19 21 21 20 20 20 19 18 17 14 13 14 12 12 13 13 14 14 17 17 17 20 20 20 20 20 20 20 20 21 21 20 20 20 19
10 12 10 9 10 11 11 12 15 16 17 16 16 18 17 17 18 18 19 19 21 21 21 21 17 16 18 16 12 11 11 11 12 12 14 13 15 16 17 17 19 20 20 20 20 20 20 20 20 20 20 20 20 20
10 10 9 9 9 11 14 15 17 18 17 17 17 17 18 18 18 18 19 20 20 20 20 19 19 17 16 14 13 13 13 13 13 14 15 16 16 16 17 17 18 18 19 20 20 20 20 20 21 21 21 21 21 21
8 8 9 9 8 9 15 16 16 16 18 17 18 18 18 18 19 19 20 19 20 21 21 19 17 15 14 14 14 15 15 15 15 16 16 17 17 18 18 19 18 18 18 19 20 20 20 19 20 20 20 21 21 21
10 9 9 11 10 14 16 16 16 17 16 17 18 18 18 18 19 20 20 20 20 19 18 17 17 17 17 16 16 16 15 15 16 16 18 19 19 19 19 20 20 20 20 20 19 18 20 20 19 19 19 19 20 20
11 11 10 12 14 14 16 16 17 16 17 17 18 18 18 18 17 17 16 19 18 17 16 16 15 15 16 15 15 16 16 17 16 17 18 18 19 20 20 19 19 19 20 19 19 19 18 18 17 17 18 18 17 18
10 9 12 13 15 15 16 15 15 16 15 17 17 16 14 14 15 15 16 15 13 13 13 14 14 15 16 16 16 17 16 16 16 16 16 17 18 18 18 19 19 20 19 18 18 18 18 17 16 16 17 16 17 18
9 10 13 14 14 12 14 16 15 15 15 15 16 15 14 14 13 14 12 12 12 12 14 14 15 16 17 17 17 17 18 19 20 19 19 20 19 18 19 19 18 18 18 17 17 17 17 16 16 16 16 16 16 17
9 11 13 14 15 14 18 17 18 17 18 17 16 14 16 16 15 14 13 13 13 15 17 18 19 19 19 18 18 17 17 17 19 19 18 18 20 19 18 18 18 18 16 16 16 16 16 15 15 16 16 15 16 15
12 11 15 12 17 17 18 18 18 19 18 18 17 17 17 17 16 15 13 13 16 18 18 18 18 18 18 18 18 17 16 16 17 18 16 16 17 17 18 18 15 15 14 14 15 14 14 14 15 15 15 15 14 14
12 16 14 19 19 19 19 18 18 18 18 18 18 20 19 18 17 14 12 14 16 17 17 17 17 17 17 16 16 16 15 15 16 16 15 15 15 15 15 16 16 14 12 12 12 13 13 13 13 13 14 14 13 13
16 19 19 18 18 19 19 20 20 20 19 19 20 20 19 17 14 13 15 15 15 15 15 15 15 15 16 15 15 14 14 14 14 14 15 15 14 13 12 13 12 10 11 10 10 10 10 10 10 10 10 11 11 11
19 19 18 20 20 20 19 20 20 19 20 20 18 17 15 13 12 13 13 13 13 12 12 13 13 14 14 14 14 14 14 13 13 13 14 15 13 12 11 10 10 9 9 8 8 8 8 7 7 8 8 9 9 9
20 22 21 20 21 20 20 19 19 20 19 20 17 14 12 10 9 10 11 11 11 10 11 14 14 14 14 14 13 13 12 11 11 12 12 12 12 11 9 9 9 8 8 8 8 6 6 6 6 7 7 8 8 8
21 23 20 20 20 18 19 20 19 19 17 15 12 10 9 9 8 9 10 11 13 15 15 15 14 13 13 13 12 11 11 9 8 8 9 9 9 8 7 7 7 7 7 7 7 7 6 7 7 7 7 6 6 5
22 22 21 20 20 20 20 19 18 17 17 15 14 12 12 13 12 13 14 14 15 15 14 13 13 12 11 11 10 9 9 8 6 5 4 5 5 5 5 6 6 6 6 6 6 7 6 6 6 6 5 5 5 4
23 22 21 21 20 21 19 17 17 17 17 16 16 15 14 13 12 14 13 13 13 14 12 12 11 11 9 9 8 8 7 8 6 4 3 2 3 3 4 5 5 5 5 6 6 6 6 5 5 5 4 4 4 3
23 23 22 22 22 21 21 18 16 16 17 18 16 16 16 15 13 15 14 12 12 12 11 11 11 10 9 8 7 7 7 6 4 2 2 1 1 1 3 3 4 4 4 5 5 5 4 4 4 3 3 3 3 3

GFSWCAN_925_temp_012.txt.gz
Temp
6 6 6 6 7 6 7 7 6 6 6 6 7 7 7 7 7 7 8 7 6 6 8 10 12 12 13 13 11 11 9 16 18 16 14 14 16 21 23 27 28 27 27 28 30 29 26 31 29 30 32 33 33 34
6 6 6 6 6 7 6 6 6 6 7 6 7 6 7 7 7 6 7 8 7 7 9 9 11 12 13 14 14 13 12 11 15 16 16 16 17 19 21 23 28 27 29 28 30 31 31 32 31 32 33 33 33 33
6 6 6 6 6 7 7 7 7 7 7 7 7 6 6 6 6 6 7 7 6 6 9 12 13 14 14 14 13 14 16 16 16 14 14 15 16 17 19 23 22 28 20 28 29 31 31 31 32 32 33 32 33 31
7 6 6 7 7 7 7 7 7 7 7 6 6 6 6 6 7 7 6 6 6 7 8 13 16 16 17 18 15 16 16 17 17 17 15 16 16 15 16 16 17 19 20 22 28 30 29 28 29 29 31 29 28 27
7 7 7 7 7 7 7 7 7 7 7 6 6 6 7 7 7 7 7 7 6 6 8 10 13 15 17 18 18 17 16 16 16 15 14 14 15 15 16 15 16 16 18 18 22 20 26 25 27 28 27 27 26 26
7 7 7 7 7 7 7 7 7 7 7 7 7 7 7 7 7 8 7 8 7 6 7 11 16 17 20 19 18 18 18 17 17 16 14 11 15 13 15 16 16 16 18 18 16 15 19 23 25 27 27 27 27 27
7 7 7 7 7 7 7 7 7 7 7 7 7 7 7 7 7 9 8 10 9 9 8 10 13 15 14 20 19 19 18 18 17 13 11 11 14 13 15 15 15 15 16 16 17 17 15 17 21 24 25 26 25 26
7 7 7 7 7 7 7 7 7 7 7 7 8 8 8 7 7 9 10 9 8 9 9 8 11 10 16 19 19 20 18 17 13 12 11 15 14 13 15 14 15 14 15 16 16 19 18 18 18 19 20 22 23 24
7 7 7 7 7 7 7 6 6 7 8 9 9 9 8 8 11 10 9 8 8 8 8 9 9 13 10 13 17 19 18 15 14 12 13 14 12 14 13 14 14 14 14 15 16 18 18 17 16 17 17 18 18 18
8 8 8 8 8 8 7 6 6 7 10 10 10 12 12 12 11 9 7 8 7 8 8 10 13 11 11 15 18 19 20 17 14 13 13 13 12 12 13 13 13 13 13 16 15 14 14 13 14 15 15 16 14 15
8 8 9 8 8 8 8 6 6 8 11 12 13 14 12 12 11 9 10 9 10 10 11 14 14 14 15 14 15 15 15 16 14 12 14 12 12 12 12 13 13 13 13 14 16 17 16 14 14 13 13 14 14 15
8 9 9 9 9 8 8 8 7 9 11 9 9 9 11 13 12 10 10 9 9 8 10 13 15 17 18 17 13 14 14 15 13 13 13 11 11 12 13 14 14 14 15 15 16 17 17 18 18 17 17 16 16 17
9 9 9 10 9 9 8 9 9 8 8 10 11 13 13 13 11 13 12 13 13 12 15 16 14 12 13 13 13 13 14 14 14 14 12 11 11 12 15 17 16 17 18 18 18 19 21 21 20 19 16 16 18 17
10 10 10 10 9 10 9 10 10 9 9 13 12 11 10 11 11 12 13 14 14 12 13 17 16 12 12 13 15 14 14 16 15 14 13 13 13 14 16 18 17 16 19 20 20 21 21 19 17 19 19 20 20 19
10 11 11 10 11 11 11 11 10 10 13 13 13 11 13 14 15 16 16 17 16 13 17 20 21 21 19 18 17 16 16 13 13 14 13 13 13 15 16 17 19 19 19 20 20 21 21 21 20 19 18 17 18 18
9 12 11 12 11 12 13 13 11 15 15 15 15 16 18 18 18 19 20 20 22 20 22 22 19 18 16 15 13 12 13 11 11 13 13 14 16 15 15 15 17 20 20 19 20 20 20 19 20 20 20 20 20 20
9 12 12 11 11 13 13 13 17 18 18 17 17 20 18 17 15 18 20 20 21 22 19 19 15 15 14 12 11 11 11 11 12 12 12 13 13 15 14 14 15 16 17 19 20 19 18 20 20 20 20 20 20 20
10 11 10 10 10 12 16 17 18 19 18 19 18 18 18 19 19 19 21 21 21 20 20 19 17 14 13 13 12 12 12 13 13 13 13 15 15 16 16 16 18 19 19 17 19 20 19 20 19 18 20 20 19 20
8 9 10 11 9 9 18 18 17 17 19 19 19 19 19 19 18 19 21 21 21 21 20 19 16 15 14 14 14 14 14 14 15 15 15 16 16 16 17 18 19 19 19 19 19 20 20 19 19 19 20 20 20 20
11 11 11 12 11 15 18 18 18 19 18 18 19 18 18 19 19 20 20 20 20 19 17 15 15 14 14 14 15 15 15 15 15 15 17 17 19 19 19 19 19 20 20 20 19 19 19 19 19 19 19 19 19 19
13 12 13 14 16 16 17 18 18 18 17 17 18 18 17 18 16 16 16 18 16 14 14 14 15 15 16 16 17 17 16 18 16 16 17 19 19 19 19 20 20 20 20 19 19 19 18 18 17 17 18 18 18 18
13 12 13 16 17 17 17 17 18 17 16 18 18 18 16 16 16 14 15 15 13 13 13 14 15 18 17 16 17 17 17 18 19 19 17 18 19 20 20 20 20 20 19 19 19 18 18 17 16 17 17 17 17 18
12 12 16 17 16 14 15 18 18 18 17 17 17 17 16 16 16 16 12 13 13 14 14 14 17 18 18 18 17 16 17 18 20 19 19 19 19 19 20 20 19 19 19 18 17 17 17 16 16 16 17 17 17 17
11 14 15 17 18 15 21 19 19 19 19 19 18 17 17 16 16 16 14 13 15 16 18 17 18 18 18 17 18 17 16 17 18 18 17 18 19 19 17 17 17 16 15 16 16 15 15 15 15 16 16 16 16 16
13 13 15 11 20 19 20 19 20 20 19 20 19 18 17 17 17 15 14 15 16 16 17 18 18 18 17 17 17 16 16 16 17 18 17 17 16 17 17 15 14 13 13 13 13 13 13 13 13 13 14 14 13 13
12 19 14 20 20 20 20 20 20 20 20 20 20 20 14 16 17 14 14 16 16 16 16 16 16 16 17 17 17 17 16 15 15 16 16 16 15 14 14 14 14 12 11 12 11 11 12 11 11 11 11 12 11 12
16 19 20 22 21 21 20 20 22 21 19 18 20 18 18 14 13 13 14 13 14 14 14 14 15 16 17 16 16 15 15 14 14 14 15 15 13 12 12 12 11 10 10 10 10 10 10 9 9 9 10 10 10 10
20 21 14 12 16 17 13 17 20 19 20 20 19 17 15 13 11 12 12 13 14 14 14 15 16 16 15 15 15 14 14 13 12 12 13 14 12 11 10 10 10 9 9 8 9 9 8 8 8 9 9 9 9 9
21 20 21 18 21 22 21 19 19 19 19 19 18 15 12 11 12 13 14 14 14 15 16 16 16 15 14 14 14 13 12 10 10 10 10 11 11 10 9 9 9 9 9 9 7 7 7 8 8 8 8 8 8 7
23 23 20 16 21 19 19 20 19 19 18 16 14 14 13 13 14 14 14 16 16 16 16 15 15 14 13 13 12 11 11 9 8 7 7 8 8 8 7 8 8 8 8 8 8 9 8 8 8 8 7 7 6 6
24 24 23 21 20 21 21 21 19 19 19 18 17 16 15 14 14 15 15 15 15 15 14 14 14 13 12 11 11 11 10 9 7 6 5 5 6 6 6 7 7 7 7 8 8 8 7 7 7 6 6 6 5 5
24 23 23 22 21 21 21 21 20 19 18 17 17 15 16 14 13 15 15 15 15 14 13 13 13 12 11 10 9 9 8 8 6 5 4 4 4 4 5 6 5 6 6 7 7 6 6 5 5 5 5 5 5 5
24 24 23 23 23 22 22 20 19 19 19 18 18 18 18 16 15 15 15 14 13 13 12 12 12 11 10 9 8 8 8 5 5 4 4 4 3 3 3 4 4 4 5 6 5 5 5 5 5 5 5 5 4 4

GFSWCAN_925_temp_015.txt.gz
Temp
7 7 7 7 7 7 7 7 7 7 7 7 6 6 7 7 7 7 7 7 6 6 7 9 10 9 11 11 10 11 9 9 10 11 13 12 13 16 17 18 19 21 24 25 26 26 27 28 30 29 27 30 32 32
7 7 7 7 7 7 7 7 7 7 7 7 6 6 6 6 6 6 7 8 7 6 7 8 8 9 10 11 11 10 10 9 9 12 14 14 14 14 15 17 21 20 18 20 24 24 24 22 21 21 25 28 30 28
7 7 7 7 7 7 7 7 7 7 7 6 6 6 6 6 6 6 7 7 7 6 7 9 11 12 11 11 11 11 12 13 10 11 12 12 13 15 15 17 17 21 18 21 22 24 26 24 22 23 22 22 24 24
7 7 7 7 7 7 7 7 7 7 6 6 6 6 6 6 7 7 7 7 6 6 6 9 12 12 12 14 13 12 12 13 12 9 10 12 13 13 15 15 16 17 17 18 20 18 18 24 21 23 23 22 22 22
7 7 7 7 7 7 7 7 7 7 7 7 6 6 6 7 7 7 7 8 7 6 7 8 9 12 15 14 15 13 14 13 14 12 12 13 13 13 15 15 16 16 17 17 18 16 16 16 19 20 22 22 21 21
8 8 8 8 7 7 7 7 7 7 6 6 6 6 6 7 7 7 7 8 8 6 7 8 13 14 13 15 15 15 15 14 14 14 14 13 13 13 14 14 15 16 16 17 17 16 15 16 18 22 22 22 22 21
8 8 8 8 8 8 8 8 7 6 6 6 6 7 7 7 6 8 9 9 9 8 7 8 11 12 14 15 16 16 16 15 14 12 12 12 12 13 14 14 14 15 16 16 16 16 16 14 14 17 19 21 22 22
8 9 9 9 8 8 8 8 8 7 7 7 8 8 8 8 7 7 10 10 9 9 8 8 10 11 11 13 15 17 16 14 13 12 11 11 12 12 14 15 14 14 14 16 15 16 15 14 14 15 17 19 18 17
9 9 9 9 9 9 9 9 8 7 9 9 10 10 9 8 9 10 10 9 8 9 8 8 9 10 10 11 12 13 16 14 11 11 11 12 12 13 13 13 14 14 13 14 14 14 16 15 15 15 16 16 16 16
9 9 9 9 9 10 10 9 8 8 10 11 11 11 11 11 10 9 8 8 7 7 7 8 10 10 10 12 13 13 15 12 12 12 12 12 12 12 12 12 13 13 13 13 14 13 13 13 14 14 14 15 16 15
9 9 9 9 9 10 10 9 8 8 11 12 12 13 11 11 10 8 9 8 9 9 9 10 11 11 11 12 12 13 13 13 11 12 13 11 12 12 12 12 12 12 13 13 13 13 13 13 13 14 15 14 15 15
9 9 9 9 10 10 10 9 9 8 9 8 8 9 10 12 11 10 10 8 7 9 10 11 11 12 12 13 12 12 13 12 12 13 12 11 11 11 12 13 13 13 14 14 14 15 16 16 16 16 15 16 16 16
9 9 10 10 10 10 11 10 10 9 9 10 9 11 12 11 10 11 9 11 9 11 13 13 12 11 12 12 12 11 12 13 13 12 10 11 11 11 12 13 14 14 16 17 17 18 18 18 19 18 17 17 17 18
9 10 10 10 11 11 11 11 11 10 10 13 13 9 12 12 11 11 12 12 12 12 12 12 13 12 11 13 13 14 14 15 14 12 11 12 12 13 13 13 14 15 16 18 18 17 17 18 17 17 17 18 18 17
9 10 11 11 12 12 12 13 12 11 12 14 14 9 14 15 16 17 17 14 14 13 15 15 15 16 15 16 14 14 14 13 12 12 12 12 12 13 15 16 17 17 17 18 18 18 18 18 17 17 18 18 19 19
8 11 10 12 12 13 14 14 13 12 16 15 16 16 18 15 16 17 18 18 19 19 18 17 16 15 13 12 12 11 12 11 11 12 12 12 12 12 12 14 14 17 16 15 16 17 18 18 17 18 19 19 19 19
9 9 11 11 11 14 15 14 16 18 18 17 16 18 13 14 15 17 18 18 19 19 16 16 14 13 12 11 12 12 12 12 12 12 11 12 12 12 13 13 15 15 14 16 17 17 18 18 19 18 16 18 19 19
8 10 11 11 10 12 14 16 17 18 18 16 15 17 17 15 14 17 18 18 18 17 17 16 15 13 13 13 12 12 11 12 12 12 12 13 15 15 16 16 16 16 17 16 18 17 17 17 16 16 17 18 18 18
9 11 12 12 10 8 15 18 17 17 18 17 15 17 15 14 14 16 17 17 17 17 16 15 14 13 13 13 13 13 12 13 13 13 13 13 14 15 16 18 18 17 17 16 17 17 17 16 17 17 17 17 17 17
12 12 13 14 12 14 18 18 18 17 16 16 14 16 16 15 15 16 16 16 16 16 14 14 13 13 13 13 13 13 14 14 13 13 15 15 17 17 17 17 18 19 18 18 17 17 16 16 16 17 17 17 16 16
12 13 15 15 14 15 17 17 17 16 16 16 16 16 15 16 15 15 15 15 15 14 13 13 14 14 14 15 15 15 13 14 15 15 15 16 17 19 19 19 19 18 18 17 16 16 16 15 16 16 17 17 17 16
13 13 13 17 17 17 17 18 18 18 16 17 17 17 16 15 15 14 15 15 13 13 13 14 14 16 14 13 14 14 14 16 17 17 17 18 17 17 17 17 18 17 16 16 16 16 15 16 15 16 16 17 16 16
12 12 14 18 17 12 13 18 18 19 17 18 18 17 15 15 15 15 13 14 14 15 15 15 16 16 15 16 15 15 15 15 16 16 16 17 17 16 15 15 14 14 14 14 14 14 14 14 13 14 14 14 14 15
12 13 16 16 17 14 19 17 18 19 19 19 17 16 16 15 16 15 14 14 14 16 15 15 16 15 16 16 15 15 15 15 15 16 16 16 16 14 13 13 12 12 13 12 12 12 12 12 11 11 12 12 12 12
12 13 14 10 17 19 20 20 20 20 20 20 17 13 12 12 15 13 13 13 13 15 15 15 14 14 15 15 16 15 15 14 14 14 15 15 15 14 13 12 11 11 11 11 11 11 11 10 10 10 10 11 11 11
11 17 13 16 13 16 18 17 19 19 20 20 17 14 14 15 15 13 13 13 14 14 14 14 15 16 15 15 15 15 14 13 12 13 13 13 12 12 12 11 10 10 10 10 10 10 9 9 9 9 10 10 10 10
15 14 13 12 12 13 15 17 20 20 19 19 18 18 17 14 13 13 14 14 14 15 15 15 16 16 15 15 14 13 12 11 10 10 12 11 10 10 10 10 9 9 9 9 9 9 8 8 8 9 9 9 8 8
13 11 14 15 14 17 19 19 19 18 18 19 19 16 14 13 12 14 14 14 15 15 15 16 15 15 14 14 13 12 11 10 9 9 9 10 9 9 9 9 9 9 8 8 8 8 8 8 8 8 8 8 7 7
15 15 16 17 20 21 20 19 18 17 17 18 16 15 14 13 14 15 15 15 15 16 15 15 14 14 13 13 12 11 10 8 8 7 7 8 8 8 8 8 8 8 8 8 8 8 8 8 7 7 7 6 6 6
20 22 21 21 20 19 19 20 18 18 17 16 15 15 15 14 15 15 15 15 15 15 15 14 14 13 12 12 11 10 8 7 6 6 6 7 7 7 7 7 7 7 7 8 8 7 7 7 7 6 6 6 5 5
25 24 23 22 21 21 20 20 19 19 19 18 18 17 16 16 15 15 15 15 15 14 14 14 13 12 11 11 10 10 9 7 6 5 5 5 5 5 5 6 6 6 6 7 7 6 6 6 6 6 6 5 5 5
24 23 23 22 21 22 21 20 20 19 19 18 17 17 16 14 14 15 15 15 14 13 13 12 12 11 10 10 9 9 8 6 5 5 5 4 4 4 4 5 5 5 5 6 6 6 6 6 5 5 5 5 5 4
24 24 24 23 21 20 21 20 20 19 19 18 17 17 17 16 15 16 14 13 13 12 11 11 11 10 9 9 8 8 7 6 5 5 5 5 5 4 4 4 4 4 5 5 5 5 5 5 5 4 4 4 4 4

GFSWCAN_925_temp_021.txt.gz
Temp
8 7 8 8 8 8 8 7 7 7 7 7 6 6 6 6 6 6 6 6 6 6 7 7 7 7 7 7 7 7 7 7 6 8 9 9 9 10 11 13 14 16 15 15 17 18 18 19 19 20 19 19 24 25
7 7 8 8 8 8 8 8 8 8 7 7 7 6 6 6 6 6 6 7 6 5 7 7 7 8 8 8 8 7 8 7 8 7 8 8 10 10 11 11 15 14 16 15 19 19 18 18 17 18 18 18 18 20
8 8 8 8 8 8 8 8 8 8 8 7 6 6 6 6 6 6 6 6 6 5 7 6 6 8 7 7 8 6 7 8 8 8 7 8 8 10 11 12 14 16 17 17 18 19 18 18 17 18 18 18 18 18
8 8 8 8 8 8 8 8 8 8 7 8 7 6 6 6 7 6 6 6 6 5 6 6 9 7 10 10 7 7 8 8 9 8 8 8 9 9 8 11 13 14 16 18 18 16 18 18 17 16 18 17 18 18
8 8 8 8 8 8 8 9 9 9 9 8 7 6 6 6 7 7 6 7 6 6 6 6 7 9 10 9 8 7 7 7 8 8 8 8 9 8 9 11 13 14 16 17 18 16 16 15 15 15 16 17 16 17
9 9 8 9 8 9 9 9 9 9 9 8 7 7 7 7 7 6 4 8 7 5 6 7 6 7 9 10 9 8 8 7 8 8 8 8 10 9 8 11 13 13 14 14 15 15 15 15 14 16 16 16 17 17
9 9 9 9 9 9 9 9 10 10 9 9 7 7 7 7 6 6 6 8 7 6 6 6 7 9 11 9 8 7 8 7 7 7 8 10 11 10 10 12 13 12 14 15 15 15 15 15 15 15 16 17 17 17
8 9 9 9 9 9 10 10 10 10 10 10 10 10 10 7 7 7 7 6 6 6 6 7 7 8 9 9 9 8 8 8 9 9 11 10 10 10 11 13 12 14 14 14 14 15 14 14 14 15 15 16 16 17
8 9 9 9 10 10 10 10 10 10 10 10 10 10 8 7 7 7 7 7 6 6 6 7 8 9 9 9 9 9 9 9 9 10 10 10 9 11 12 12 13 13 14 14 14 14 14 14 14 14 14 14 15 15
8 9 9 10 10 10 10 11 10 10 11 11 10 10 8 9 9 7 7 7 6 6 6 6 7 8 8 10 10 9 10 10 9 9 10 9 10 11 12 12 12 12 13 14 14 14 14 14 14 13 14 14 14 13
9 9 9 10 10 11 10 11 10 10 11 10 6 7 8 8 8 8 8 6 7 6 6 6 7 8 9 10 11 10 11 10 10 12 11 10 10 11 11 12 12 12 12 13 12 12 13 14 14 14 14 14 14 14
9 10 10 9 10 11 11 11 10 8 8 7 7 7 7 8 9 8 8 7 6 8 8 9 10 10 10 10 11 10 10 10 11 11 10 10 10 11 12 12 12 12 12 13 13 13 14 14 14 14 15 15 15 16
10 9 10 10 10 11 11 11 12 11 10 8 7 9 9 10 11 8 9 11 11 9 9 10 11 10 11 10 10 10 13 13 12 10 9 9 10 12 12 13 13 13 13 13 13 13 14 14 14 15 15 15 16 15
10 10 11 11 11 11 11 14 14 12 11 8 9 9 10 11 12 11 12 12 13 11 12 10 12 11 11 12 12 13 12 11 11 11 11 12 12 12 12 12 12 13 13 14 15 15 15 15 15 15 15 15 15 14
10 11 12 11 11 12 15 16 14 13 12 11 11 10 11 11 12 13 13 13 14 13 11 12 12 12 11 11 12 12 12 11 11 12 12 12 12 12 12 13 14 14 14 14 15 15 15 15 15 15 15 15 15 15
10 12 12 12 13 16 16 16 15 14 12 12 11 11 11 12 12 13 13 12 14 15 12 11 12 12 12 11 12 11 11 11 12 12 11 11 12 12 12 12 13 14 14 14 14 14 14 14 14 14 14 14 15 15
12 12 13 13 15 17 17 16 16 13 13 13 12 10 10 11 11 12 13 12 14 15 14 12 12 12 12 12 12 12 12 12 11 11 10 11 11 11 12 12 12 12 12 14 13 13 13 14 14 13 12 12 13 13
13 13 13 13 14 16 17 16 14 14 13 11 10 10 8 10 11 12 12 14 13 12 12 12 12 11 12 12 12 12 11 11 11 11 11 11 10 10 11 10 11 12 12 12 12 12 11 12 11 9 11 12 12 11
13 14 14 14 14 13 12 14 14 13 13 11 10 9 10 10 11 12 13 14 14 12 10 9 10 10 9 9 10 11 10 10 11 11 9 9 10 10 10 11 10 10 10 9 10 10 10 10 9 10 11 11 9 9
14 14 14 14 15 14 13 12 14 12 12 11 10 10 9 9 9 12 12 13 11 10 11 9 10 10 9 9 8 8 8 8 9 10 9 9 11 11 10 10 9 10 9 9 9 8 9 9 9 9 9 8 8 7
14 14 15 14 15 14 11 11 11 11 11 12 11 10 10 9 10 10 11 10 11 10 10 8 9 10 10 10 10 10 9 7 6 7 10 10 10 10 9 9 9 9 8 8 7 7 7 7 8 9 9 8 8 7
12 13 14 14 14 12 11 13 11 11 11 11 11 10 10 10 9 9 7 8 8 9 9 8 7 7 8 8 8 9 9 10 9 9 9 9 9 9 8 9 8 8 7 7 7 7 7 8 9 9 8 8 7 7
12 13 13 13 14 10 13 12 13 11 12 12 11 12 11 10 10 8 8 9 9 8 9 9 9 9 8 9 10 9 9 9 8 7 8 7 7 7 7 8 8 8 7 7 7 7 7 8 8 8 7 6 6 5
12 12 12 11 11 11 12 14 11 11 11 11 11 13 13 12 10 9 10 9 8 8 8 8 9 7 8 8 5 6 8 8 8 8 8 7 6 6 7 8 8 8 8 8 8 8 7 7 7 7 6 5 5 5
11 11 11 9 11 12 14 14 14 13 13 11 12 11 11 10 10 10 9 8 7 8 7 9 8 6 5 5 5 7 8 8 7 5 7 7 7 7 7 7 7 7 8 8 7 7 7 7 6 6 6 6 5 5
11 13 12 13 12 13 12 14 14 14 13 14 13 10 10 10 11 10 8 8 8 8 9 8 7 6 5 6 4 5 7 8 7 6 6 7 7 6 4 3 4 6 7 7 7 7 6 6 6 6 5 5 5 5
12 14 11 9 10 10 11 11 12 12 14 14 13 12 12 11 11 9 8 8 10 11 12 11 11 8 6 7 7 7 8 8 7 6 6 6 6 6 6 5 4 5 7 7 7 7 6 6 5 5 5 5 5 4
14 11 15 12 12 11 14 13 13 13 12 11 11 12 12 11 10 8 8 13 12 12 12 11 10 9 8 7 7 7 7 7 7 7 6 6 5 5 5 6 6 6 6 6 6 6 6 6 5 5 5 5 4 4
13 11 12 13 13 13 14 14 13 11 10 10 10 10 10 8 9 11 13 13 12 12 10 9 8 8 7 7 6 6 6 6 5 3 2 1 2 4 4 5 5 5 6 6 6 6 6 5 5 5 4 4 4 4
15 11 13 15 16 16 14 12 12 11 10 10 9 9 9 9 13 13 13 12 12 11 11 10 8 8 6 6 5 5 5 5 5 4 1 1 3 4 4 4 4 4 5 5 5 5 5 5 5 4 4 4 3 3
13 13 15 15 15 13 12 12 12 12 12 11 10 10 9 9 12 12 13 12 12 11 10 9 8 7 7 6 5 4 4 5 5 5 5 4 4 4 4 4 4 4 4 5 4 4 4 4 4 3 3 3 3 3
14 15 15 16 15 12 13 13 12 12 11 11 11 11 10 10 10 9 11 11 11 10 9 9 8 8 8 8 7 6 7 6 5 5 5 5 4 4 4 4 3 3 4 4 4 3 3 3 3 3 3 2 2 2
17 16 15 15 14 15 13 13 12 13 11 11 11 10 10 10 10 9 11 11 11 11 10 9 8 8 7 7 7 7 6 6 6 5 5 5 4 4 4 4 4 3 3 3 3 3 3 2 2 2 2 2 2 2

GFSWCAN_925_temp_024.txt.gz
Temp
8 8 8 8 8 8 8 8 8 8 8 8 6 6 6 7 7 6 6 6 6 6 7 7 8 7 7 7 6 8 7 6 8 8 9 9 7 9 9 11 12 10 11 11 12 14 16 18 20 21 19 18 19 19
8 8 8 8 9 8 9 9 8 8 8 8 6 6 6 7 7 6 6 6 6 5 6 7 7 7 8 7 8 7 8 7 6 7 7 7 8 8 9 10 11 11 12 13 14 15 15 17 17 17 18 18 18 18
8 8 8 8 9 9 9 9 9 9 9 8 7 6 6 7 7 7 6 6 5 5 6 5 6 8 7 7 7 6 7 8 8 7 7 7 8 8 9 11 11 12 13 13 13 17 17 17 17 17 17 17 18 18
8 8 8 8 9 9 9 9 9 9 9 8 7 6 7 7 7 7 7 6 5 5 5 6 8 7 9 9 7 7 7 7 8 7 7 7 8 8 9 10 9 10 10 13 14 15 17 17 16 15 17 17 17 17
8 9 8 8 9 9 9 9 9 9 9 9 7 7 7 7 7 7 6 6 6 5 5 6 7 8 8 8 6 6 6 6 7 7 8 8 8 8 8 8 8 10 11 11 14 16 16 16 15 15 16 16 16 16
9 9 9 8 9 9 9 9 9 9 10 10 7 7 7 7 7 7 5 6 5 5 5 7 7 7 9 8 7 6 6 6 7 7 8 8 10 7 8 9 11 13 13 13 14 14 14 14 14 14 15 16 16 16
8 9 9 9 9 9 9 9 9 10 10 10 7 7 7 7 7 6 6 6 6 5 6 6 7 8 9 9 6 7 8 7 7 7 8 8 9 8 8 9 11 12 13 13 13 14 14 14 14 14 14 15 16 16
9 9 9 9 9 8 9 10 10 10 10 10 7 9 10 7 7 7 7 6 6 6 5 6 7 7 8 7 8 6 6 7 6 7 8 9 9 9 8 9 9 10 12 12 14 14 14 14 14 13 13 14 15 15
9 9 9 10 9 7 10 10 10 10 10 9 9 9 8 7 7 7 7 6 6 6 6 6 7 8 8 9 9 8 8 9 9 9 9 9 7 8 9 10 13 13 13 14 13 14 14 14 14 14 13 13 14 14
9 9 10 10 10 9 10 10 10 10 10 10 9 9 8 8 8 7 7 7 6 6 6 6 6 7 7 9 10 9 10 10 9 8 9 7 8 9 11 12 13 13 13 15 14 13 14 14 14 14 13 13 14 14
10 10 10 10 10 11 11 11 10 7 10 9 5 6 7 8 8 8 7 6 6 6 5 5 6 7 8 9 10 9 10 9 9 11 10 9 10 11 12 13 13 13 12 12 13 13 13 13 13 13 13 14 15 15
10 10 10 10 11 12 11 12 10 7 7 7 7 7 7 8 9 9 9 6 6 8 7 8 9 8 9 9 10 10 10 10 10 10 10 9 11 12 12 12 12 13 13 13 13 13 13 13 14 14 15 15 15 15
10 10 10 12 12 11 13 14 13 11 9 8 7 9 10 10 11 11 10 12 12 10 9 9 10 10 10 10 10 11 12 12 11 9 8 11 12 11 10 11 10 10 11 12 12 12 14 14 14 14 14 14 14 14
10 11 12 12 11 13 16 15 14 13 12 8 10 10 11 11 11 11 11 11 12 11 11 10 11 10 10 10 11 13 11 11 11 10 11 11 11 11 10 10 10 10 10 10 11 12 13 13 14 14 14 13 14 14
11 13 13 12 12 15 16 17 16 14 12 10 10 10 11 11 11 11 11 12 13 12 11 11 10 11 11 12 12 11 12 10 10 11 11 11 11 10 11 11 11 11 12 11 11 13 13 12 12 13 14 13 12 12
13 14 13 13 16 16 18 18 16 15 12 11 11 11 10 12 12 12 12 12 14 14 11 11 12 12 12 11 12 11 10 11 12 12 11 11 11 11 11 10 11 12 12 11 10 11 12 12 12 12 12 12 11 11
14 13 13 14 17 17 18 17 16 12 11 12 10 8 8 9 9 10 12 12 12 13 11 12 12 11 12 12 12 12 12 11 11 10 10 10 9 8 8 8 9 10 10 10 10 10 10 11 11 11 11 11 10 9
14 14 14 14 16 17 17 16 13 12 12 10 9 9 8 8 9 11 11 12 10 8 9 10 10 9 10 10 10 10 9 10 10 8 8 8 7 7 8 7 8 8 8 8 9 9 8 9 8 9 9 9 9 9
13 14 14 14 14 14 12 14 13 12 11 9 9 8 9 9 10 10 11 12 12 9 8 8 8 8 9 9 9 8 8 8 8 7 7 8 8 8 7 8 8 8 8 7 7 7 8 7 7 7 7 8 7 7
14 14 14 14 14 14 13 11 13 11 12 11 9 9 8 9 7 10 11 10 9 7 8 7 8 8 8 8 7 6 6 6 8 9 9 9 9 9 7 7 7 8 7 7 7 7 7 7 7 7 6 6 6 5
14 14 15 14 15 14 11 10 11 10 9 10 9 9 10 8 8 8 8 7 8 7 7 7 7 7 8 8 7 6 6 5 4 5 6 8 8 8 8 8 8 8 8 7 6 6 6 5 6 7 6 5 5 5
13 13 14 14 13 12 10 11 10 9 10 10 11 10 9 10 8 8 6 7 7 7 7 6 5 5 6 6 6 7 7 8 8 7 7 7 6 6 6 7 6 6 6 5 5 5 6 5 6 6 5 4 5 5
13 13 13 13 14 10 12 11 12 11 11 10 9 11 10 10 9 7 8 7 7 7 7 7 8 7 6 7 8 8 7 7 6 6 6 6 6 6 7 7 7 6 5 5 6 5 5 5 5 5 5 5 5 5
12 12 11 11 10 10 11 12 10 10 10 10 11 12 12 10 8 8 9 8 7 7 6 7 7 6 7 7 4 4 6 6 6 6 6 6 5 5 6 6 6 6 6 6 6 6 6 6 6 6 6 5 5 4
11 11 10 8 11 12 13 13 12 12 12 11 12 11 11 8 9 9 9 8 7 7 7 7 6 5 5 4 4 5 6 7 5 4 5 5 6 6 6 6 6 6 6 7 6 6 6 6 6 5 5 5 4 4
11 13 12 13 12 13 12 14 13 12 12 13 12 9 9 9 10 10 8 7 7 7 7 7 6 4 4 4 4 5 6 6 6 5 5 5 5 4 3 3 3 6 6 6 6 6 5 5 5 5 4 4 4 4
13 14 11 8 9 10 11 10 10 11 13 13 11 11 11 11 11 9 7 7 7 11 11 10 9 7 6 6 6 7 7 6 6 5 4 4 4 4 4 3 3 5 6 6 6 6 5 5 5 4 4 4 4 3
13 11 15 12 12 10 13 12 12 13 12 10 10 12 12 11 11 8 7 11 12 11 10 10 9 9 7 7 7 7 7 6 6 5 4 4 4 4 4 4 4 5 5 6 6 6 5 5 4 4 4 4 3 3
13 10 11 13 12 11 12 13 12 10 9 9 11 10 10 8 9 9 11 12 12 10 9 8 7 7 7 6 6 6 6 6 5 2 2 1 2 3 3 4 4 5 5 5 5 5 5 5 4 4 4 3 3 3
14 10 13 14 14 15 14 11 12 9 8 9 9 9 9 9 11 11 12 11 10 10 10 9 8 7 6 5 5 5 5 5 4 4 2 2 3 3 3 3 4 4 5 5 5 4 4 4 4 3 3 3 2 2
11 11 14 13 14 13 12 10 10 11 10 10 9 10 10 9 11 11 12 12 12 10 9 8 7 7 6 5 4 4 4 5 5 4 4 4 4 3 3 3 3 4 4 4 4 4 3 3 3 2 2 2 2 2
12 13 14 15 14 11 11 11 11 11 10 10 10 9 9 9 10 9 11 11 10 9 9 9 8 8 8 7 7 6 6 6 5 5 5 4 4 4 3 3 3 3 3 3 3 3 2 2 2 2 2 2 2 2
15 13 13 13 13 13 12 12 12 12 10 10 10 9 10 11 10 9 10 10 11 11 10 10 9 8 8 7 7 7 6 6 5 5 5 5 4 4 4 3 3 3 3 2 2 2 2 2 2 2 2 2 2 2

GFSWCAN_925_temp_027.txt.gz
Temp
8 8 8 9 8 8 8 8 8 9 9 9 8 6 7 7 7 7 6 6 6 6 7 8 8 8 8 7 7 9 9 9 9 9 10 11 11 13 12 15 15 15 13 13 14 16 16 22 24 23 24 23 23 23
8 8 8 9 9 8 8 8 9 9 9 9 7 7 7 7 7 7 6 6 6 6 6 7 8 8 8 9 8 8 9 9 8 8 8 8 9 10 11 11 15 13 15 16 16 17 19 21 20 21 21 21 22 21
8 8 8 8 9 9 8 8 9 8 9 9 7 7 7 7 7 7 7 6 5 5 6 7 8 9 7 7 8 6 7 8 9 10 8 8 8 10 11 12 13 14 15 14 15 17 18 19 20 21 21 20 21 20
9 8 8 8 9 8 8 8 9 9 9 9 7 7 7 7 7 7 7 7 6 5 6 8 8 9 8 8 7 8 9 8 8 8 6 7 8 10 10 12 12 14 14 14 15 16 16 17 19 19 21 20 20 20
9 8 8 8 9 8 9 9 9 9 9 9 7 7 7 8 7 7 7 7 7 6 6 7 8 9 8 8 7 7 8 8 8 7 7 8 8 9 9 9 9 12 12 12 13 16 16 18 19 21 19 21 19 18
9 9 8 8 8 9 9 10 10 8 10 9 7 7 7 7 7 7 7 7 6 5 6 7 9 9 9 8 8 8 8 7 6 6 7 8 10 8 9 9 13 14 12 13 12 14 15 16 17 19 19 19 19 19
9 9 9 9 8 8 10 10 9 9 9 8 7 7 8 8 7 7 7 7 6 5 6 6 7 10 9 9 8 8 7 7 6 6 6 7 8 8 7 9 11 11 11 11 12 13 14 15 17 16 17 18 16 18
9 9 9 9 9 9 10 9 10 9 8 7 7 8 9 7 7 7 7 6 6 6 6 6 7 9 9 10 10 9 8 7 6 7 7 7 8 8 8 9 10 10 10 11 11 13 15 16 15 15 15 16 18 18
9 9 10 10 10 10 10 10 10 8 7 7 8 7 7 7 7 7 7 6 5 6 6 6 8 9 9 9 9 9 7 8 8 7 8 8 6 8 9 10 10 14 11 12 12 13 14 15 15 14 15 16 18 18
10 10 10 10 10 10 11 10 9 7 8 9 8 9 9 7 7 7 6 6 6 6 6 6 6 7 7 9 10 9 9 9 9 8 8 7 7 9 11 12 13 13 13 13 14 14 14 14 14 15 15 16 17 18
10 10 10 11 11 11 11 10 9 7 9 8 9 9 7 7 7 8 7 7 6 6 5 6 6 7 7 8 10 9 9 8 9 10 9 8 10 10 11 11 10 13 13 13 13 13 14 14 14 14 14 15 16 17
10 10 11 12 12 11 12 11 10 8 7 7 7 7 7 9 10 10 10 7 6 9 8 8 9 7 8 8 10 11 10 10 11 11 10 9 10 10 10 11 10 10 11 11 10 11 13 13 13 14 14 14 15 15
11 12 13 12 12 13 15 13 12 10 8 8 8 11 10 11 10 10 10 11 12 12 11 11 11 11 12 11 11 12 12 11 12 10 9 9 10 10 9 10 10 10 10 10 11 10 11 11 11 11 12 12 12 12
12 13 14 12 13 16 16 17 14 13 11 11 11 10 10 10 10 10 10 11 12 12 12 12 12 12 12 13 13 12 12 12 12 10 10 10 11 11 10 11 10 10 10 10 10 10 10 10 10 10 10 10 11 11
14 14 14 14 16 17 18 17 17 15 13 12 11 10 12 12 12 11 11 13 14 14 13 12 13 14 13 13 12 11 12 11 10 10 11 11 11 10 10 10 11 12 12 11 11 12 11 9 9 9 9 10 10 10
15 15 14 15 17 17 18 18 16 15 13 14 13 12 12 13 13 14 13 14 15 14 15 15 14 14 12 12 12 11 11 11 11 11 11 11 9 9 9 10 10 11 11 11 11 12 12 12 11 11 11 10 10 10
15 14 15 16 18 18 18 17 16 14 13 13 13 12 11 12 12 13 13 14 14 16 14 14 11 11 11 10 9 8 9 10 9 9 9 9 9 9 9 9 9 9 9 10 10 10 11 11 11 11 11 10 10 9
15 14 15 15 17 18 17 16 15 15 14 13 13 13 12 12 12 13 13 14 14 14 13 11 12 11 10 10 10 10 9 9 9 8 10 9 9 9 9 10 9 9 9 9 9 9 9 10 10 10 10 9 10 9
14 15 15 15 15 15 15 14 14 14 14 14 13 13 14 13 13 14 14 14 13 12 13 13 12 11 11 10 10 10 9 9 10 10 10 9 9 9 9 10 10 9 9 8 9 10 9 9 9 9 9 9 9 9
14 14 15 15 15 15 15 14 13 15 15 15 12 14 13 13 13 14 14 14 14 14 13 12 12 11 11 11 9 9 9 9 10 12 12 11 10 9 9 9 10 10 10 10 10 9 10 10 9 8 8 8 8 7
14 14 15 15 15 14 14 14 14 14 14 14 11 12 13 13 14 14 13 13 13 12 11 10 11 11 9 9 8 9 9 9 10 10 10 11 10 10 10 10 9 9 9 9 10 9 8 8 7 7 7 7 7 7
13 14 14 14 14 13 14 11 14 12 14 13 14 13 14 14 13 13 12 13 11 11 10 10 10 11 11 9 8 7 7 8 8 9 9 9 10 10 10 9 9 9 9 8 8 8 7 7 7 7 7 7 6 6
13 13 13 13 15 12 12 11 14 13 14 14 13 14 14 13 12 11 12 12 11 10 9 9 9 8 8 8 8 8 7 8 9 8 8 8 8 8 8 8 8 8 9 8 7 7 7 6 7 7 7 7 7 7
13 12 14 14 13 12 13 14 13 13 13 14 14 14 14 13 12 13 12 13 13 11 11 10 10 11 10 9 10 8 7 7 8 8 7 8 9 8 7 7 7 7 6 7 8 7 7 7 7 7 7 7 7 6
12 12 12 9 13 15 15 15 15 15 15 13 14 14 13 12 13 12 12 13 13 13 12 10 10 10 11 10 9 8 6 7 8 8 6 6 7 8 8 8 7 6 6 8 8 7 7 7 7 7 6 6 6 6
12 14 13 15 14 15 15 16 15 15 15 15 14 12 12 13 13 13 13 13 13 13 13 12 12 11 10 8 9 9 7 6 6 7 6 5 6 7 7 8 8 8 5 5 6 7 7 7 6 6 6 5 4 5
14 16 13 11 13 13 14 14 14 15 15 15 15 14 14 14 14 14 13 12 13 12 10 10 10 11 11 8 7 6 6 5 5 5 4 4 4 4 4 5 6 5 4 5 6 6 7 6 6 6 6 5 5 5
16 14 17 15 14 14 15 15 15 16 16 14 14 15 15 15 16 15 14 12 11 10 10 9 8 8 8 7 6 7 6 6 4 4 4 4 4 4 4 4 4 4 4 5 5 6 6 5 5 5 5 5 4 4
16 15 15 16 15 15 16 16 17 16 15 15 16 16 15 14 13 13 12 11 11 10 10 9 7 6 6 6 5 6 6 6 7 6 6 6 6 5 4 4 4 4 4 5 5 5 5 5 5 5 4 4 4 3
17 15 17 16 17 18 18 17 17 15 14 15 14 13 13 12 12 11 11 11 10 11 11 9 8 8 8 8 8 6 6 5 5 6 6 6 5 4 3 3 4 4 4 4 5 4 4 4 4 4 4 4 4 4
15 15 16 17 18 17 15 13 12 12 12 14 13 14 13 12 11 11 11 10 10 10 10 9 8 8 8 8 7 7 7 6 5 5 4 4 4 4 3 3 3 3 4 4 4 4 4 4 4 4 3 3 3 3
16 16 17 18 18 14 13 15 15 15 14 13 13 12 12 12 12 11 10 9 9 10 9 10 10 10 8 7 6 6 6 6 5 5 4 4 4 4 3 3 3 3 3 4 3 3 3 3 3 3 3 3 3 3
17 16 16 17 17 16 15 15 15 15 14 14 14 13 13 14 14 11 10 9 10 11 10 9 9 8 7 7 7 6 6 5 5 5 5 5 4 4 4 3 3 3 3 3 3 3 3 3 3 3 3 3 3 3

GFSWCAN_925_temp_030.txt.gz
Temp
9 8 8 8 8 8 8 9 9 9 9 8 6 7 7 7 7 7 7 6 6 6 8 10 11 9 9 9 8 11 11 12 11 10 13 15 15 17 17 18 19 19 18 19 19 20 20 25 26 25 25 25 26 27
9 8 9 8 8 8 8 8 9 9 8 8 7 7 7 7 7 7 7 7 6 6 8 9 9 10 10 10 9 8 10 10 11 11 11 12 12 13 14 15 19 17 19 20 20 21 22 24 24 25 23 23 24 25
9 8 8 8 8 8 9 9 9 9 9 7 7 7 7 7 7 7 7 6 5 6 7 8 13 12 11 10 10 8 9 10 11 13 11 11 10 15 14 16 17 18 19 18 18 20 21 22 22 22 23 23 23 24
8 8 8 8 8 8 9 9 9 9 8 6 7 7 7 7 7 7 7 7 6 6 6 11 11 11 11 11 11 10 11 11 11 9 8 8 10 14 13 16 16 18 18 17 17 19 20 20 21 22 22 22 23 23
9 9 9 8 8 9 9 8 8 9 7 7 7 7 7 7 8 8 7 7 7 7 7 9 9 12 12 11 11 10 10 10 9 7 7 8 9 10 13 13 14 16 16 17 17 19 19 19 20 21 21 21 23 23
9 9 8 8 8 9 8 9 9 7 7 7 7 7 7 7 8 8 10 7 6 6 6 8 13 12 12 10 10 10 10 9 6 6 6 7 9 8 9 11 15 16 17 17 17 18 18 19 19 19 19 20 22 23
9 8 8 9 9 8 9 10 9 8 7 7 7 9 9 7 8 8 9 8 7 6 6 7 11 13 11 11 8 8 8 7 6 6 6 6 7 7 7 8 10 11 11 11 14 15 14 16 15 17 19 20 21 22
9 9 9 8 7 10 10 10 10 9 7 7 7 10 10 7 7 7 7 6 6 6 6 7 10 11 10 9 9 8 7 6 6 5 6 6 6 6 7 9 10 10 10 9 10 11 13 14 16 17 19 19 20 19
10 8 9 10 10 11 11 10 9 7 7 7 7 8 9 8 8 7 7 6 6 6 7 6 8 9 9 9 9 8 7 7 7 6 6 6 7 8 6 10 11 15 14 10 10 10 12 14 15 16 17 19 16 16
11 10 10 11 12 11 10 9 9 7 8 9 8 12 12 9 7 7 6 7 7 7 6 6 6 7 7 9 10 9 9 8 9 8 9 7 7 9 9 10 11 12 13 14 13 13 14 14 16 17 17 15 16 16
11 11 13 13 12 11 10 12 12 9 9 11 14 14 9 8 7 9 8 8 7 7 6 7 7 8 8 9 10 10 9 9 12 13 12 10 9 10 9 10 10 10 11 11 15 15 15 13 15 15 14 15 15 15
12 13 14 13 12 11 14 13 12 11 10 9 10 8 9 12 14 13 11 10 9 11 12 9 11 9 9 9 10 12 12 13 13 14 13 10 10 10 9 9 10 10 11 10 10 11 10 11 11 11 12 12 13 13
13 14 15 13 14 14 15 15 14 11 9 9 11 14 15 12 10 10 10 11 12 14 15 13 13 13 14 12 14 15 15 13 15 12 9 12 13 12 11 10 10 10 11 11 10 10 10 10 9 10 11 10 11 11
14 15 15 14 15 17 16 16 15 13 13 14 14 11 13 11 11 11 12 13 15 16 17 16 15 14 15 15 14 13 13 15 13 11 10 13 13 13 12 13 12 11 12 12 10 10 10 10 10 9 9 9 10 11
15 16 15 15 17 17 18 17 17 15 17 15 14 12 14 15 16 17 17 18 18 18 19 19 19 19 16 15 14 12 14 12 11 11 12 13 13 13 12 13 14 13 14 13 14 14 12 11 11 11 11 10 10 10
16 16 15 16 18 18 18 18 17 17 16 17 16 15 16 17 17 18 17 18 18 19 19 19 17 16 16 13 11 10 11 10 11 11 12 14 12 13 13 13 13 13 14 14 14 13 13 13 12 12 11 10 10 11
16 15 15 16 18 18 17 17 17 17 17 16 16 17 17 17 17 17 17 17 19 19 18 17 13 13 16 14 11 9 9 9 9 12 13 12 11 12 13 13 13 13 13 14 14 14 14 14 13 13 13 12 11 10
14 15 15 16 17 17 17 17 18 18 16 17 17 17 17 17 17 17 17 17 18 17 17 15 16 14 14 13 13 13 13 12 13 13 12 12 12 12 13 13 12 12 13 12 13 13 13 14 14 14 14 13 13 12
14 15 16 16 16 16 19 18 18 17 17 17 17 18 18 17 17 17 18 17 17 17 17 16 15 14 14 14 14 14 14 14 14 14 12 12 11 12 13 13 13 13 13 12 12 13 13 12 12 13 13 12 12 12
15 15 15 16 16 18 19 18 17 18 18 18 17 18 17 17 17 17 17 17 17 17 15 15 15 15 15 14 14 14 14 14 15 14 14 13 13 13 12 13 13 13 13 13 13 11 12 12 12 11 11 11 11 11
14 14 15 15 16 17 19 19 18 18 18 18 17 17 17 18 17 17 16 17 16 15 15 15 15 15 13 12 12 13 12 12 13 13 13 13 13 13 13 12 12 12 12 12 12 12 11 11 11 11 11 11 11 10
13 14 14 16 18 17 18 17 18 17 18 18 18 18 18 17 17 16 17 16 15 15 15 15 14 14 14 13 12 11 10 11 11 12 12 12 13 13 12 12 12 12 12 11 11 11 11 10 10 10 10 10 10 9
13 14 16 17 18 15 14 16 18 17 17 17 17 17 17 17 16 16 16 16 15 15 14 14 13 12 12 12 11 11 10 11 12 11 11 11 12 11 11 11 11 11 11 10 10 10 10 9 9 10 10 10 10 10
13 15 17 18 18 15 17 18 18 17 17 18 17 17 17 17 16 16 16 16 16 15 15 14 14 14 14 12 14 12 11 11 11 11 10 10 11 11 11 11 10 10 10 10 10 10 10 10 9 10 9 9 9 9
14 14 15 10 18 18 19 19 18 19 18 18 17 17 17 16 16 16 16 16 16 16 16 15 14 14 14 14 13 12 10 10 10 11 10 9 10 10 11 10 10 9 9 9 10 10 9 9 9 9 8 8 8 8
13 17 14 19 19 19 19 19 19 18 19 18 18 17 17 16 16 16 17 17 16 16 16 15 15 15 15 13 13 12 11 9 9 10 9 8 8 9 9 10 10 10 8 8 9 9 9 9 9 8 8 7 6 7
16 19 19 17 18 18 19 19 19 19 18 18 19 18 18 17 17 18 18 17 17 16 14 14 14 14 13 12 11 10 9 9 8 8 7 7 7 7 7 8 8 7 7 8 8 9 9 8 8 8 8 8 7 7
20 19 20 20 18 20 19 19 19 19 20 20 19 18 18 18 18 19 19 17 16 14 13 13 13 12 12 11 11 10 10 9 8 8 8 8 7 7 6 7 6 5 6 6 7 8 8 8 7 7 7 7 7 6
20 20 20 20 20 20 20 20 21 22 21 20 19 20 19 19 19 18 16 16 14 14 13 13 11 11 11 10 10 9 9 9 9 9 9 9 9 8 7 6 7 7 7 7 6 6 5 6 5 6 6 6 6 5
22 21 21 21 20 21 22 22 22 21 20 21 20 18 18 18 17 14 14 13 13 14 14 14 12 12 13 12 12 10 9 9 9 8 9 9 8 7 6 6 6 6 6 7 7 6 5 5 5 5 5 6 6 5
21 20 20 21 22 22 21 20 18 18 18 19 19 18 19 17 14 13 13 12 13 13 13 13 13 12 12 12 11 11 11 9 8 7 7 7 7 7 6 6 6 6 6 6 6 6 5 5 5 5 5 5 4 5
21 21 21 21 22 21 19 20 20 20 19 18 19 18 17 17 16 15 11 12 13 13 12 13 13 12 11 10 9 9 7 9 8 8 7 7 7 6 6 6 6 6 5 5 5 5 5 4 4 4 4 4 4 4
22 22 21 21 21 21 21 19 19 19 19 19 19 18 18 18 16 14 10 11 12 14 13 13 11 10 9 9 8 8 7 8 6 6 5 5 5 4 5 6 5 5 5 5 4 4 4 4 3 3 3 3 3 3

GFSWCAN_925_temp_033.txt.gz
Temp
9 9 9 9 9 8 9 9 8 8 8 8 7 7 7 7 8 7 8 7 6 6 7 9 11 10 11 12 10 13 13 15 15 13 14 15 18 19 19 21 21 21 21 21 22 22 23 29 28 28 27 27 27 27
9 9 9 9 9 9 9 9 8 8 7 7 7 7 7 7 8 7 8 7 7 6 8 10 10 11 11 12 11 9 13 13 14 12 13 14 15 17 17 18 22 20 22 23 23 24 25 26 26 28 27 25 25 26
9 9 9 9 9 9 8 8 8 7 6 7 7 7 7 7 7 7 8 7 6 6 7 8 12 12 12 12 12 9 11 12 12 14 13 12 12 17 16 18 19 20 22 21 21 22 23 24 25 26 26 25 25 25
9 9 9 9 9 8 8 7 7 7 7 7 7 7 7 7 8 8 7 7 6 7 7 11 13 13 13 13 12 12 11 11 11 12 10 11 12 16 15 17 17 18 19 19 20 21 22 22 23 24 24 24 24 24
9 9 9 8 8 8 7 7 7 7 7 7 7 7 7 8 8 8 8 7 7 7 8 10 11 13 13 12 13 11 11 10 9 8 8 8 9 10 13 15 16 18 18 18 18 20 21 21 22 23 23 23 23 23
9 9 8 8 7 8 9 7 7 7 7 7 7 7 7 8 9 10 10 8 7 6 7 9 14 12 11 10 10 9 9 8 7 6 7 7 9 8 8 10 15 15 14 15 16 18 20 20 20 21 21 22 23 23
9 9 8 7 10 10 10 8 9 7 7 7 7 9 9 9 10 11 11 9 7 6 7 8 11 12 11 9 8 8 7 7 6 5 5 6 7 7 7 9 11 11 10 11 13 14 14 17 18 20 21 22 20 21
9 9 9 9 10 11 11 10 8 7 7 7 9 10 10 10 9 9 8 7 6 7 7 7 10 10 8 9 9 7 6 6 5 5 5 6 6 6 7 9 8 9 12 13 10 11 14 16 15 17 18 19 19 21
11 11 10 11 12 12 10 9 7 7 7 8 9 10 10 10 10 8 7 7 6 7 7 7 8 10 9 9 10 8 6 7 7 6 6 5 6 8 6 9 11 12 14 15 13 11 12 12 14 16 16 16 17 20
13 13 12 13 12 12 10 10 8 8 10 10 9 12 13 10 8 7 7 9 9 7 7 7 7 9 8 10 10 10 9 10 9 10 9 8 7 9 10 10 10 11 15 16 13 11 12 12 14 15 16 17 16 19
13 13 14 14 13 12 14 13 10 10 9 12 16 16 11 8 8 11 14 10 10 11 12 11 8 9 10 10 11 11 12 10 13 14 14 11 10 10 10 11 10 11 11 11 11 13 15 15 16 16 15 15 15 18
13 14 15 14 14 15 15 14 12 11 14 14 14 14 13 13 15 16 14 12 12 14 16 15 14 11 12 10 11 15 16 17 15 17 14 10 11 12 11 12 11 10 11 11 11 11 11 11 12 12 12 12 12 12
14 15 16 15 15 15 15 15 14 14 13 13 16 18 17 16 14 12 11 12 13 16 17 17 18 17 16 13 16 18 18 17 18 13 9 12 13 14 13 13 13 13 12 11 11 11 11 11 10 10 11 11 10 10
15 16 16 16 16 16 16 16 16 14 13 18 17 12 17 16 17 15 16 18 20 20 20 18 21 19 20 18 18 16 17 17 15 11 11 13 14 14 15 15 15 14 15 14 13 11 11 11 10 9 9 10 10 10
16 16 16 16 17 17 17 17 17 15 19 19 19 15 17 20 21 20 21 21 21 22 21 20 21 22 20 17 17 15 16 12 12 11 13 13 14 14 14 15 15 15 16 16 16 15 14 11 10 10 11 10 10 10
17 17 16 16 17 18 18 18 19 19 20 20 20 19 20 20 21 21 21 20 21 22 22 21 20 19 19 18 14 11 11 11 10 11 13 14 13 14 14 15 15 15 15 16 15 15 15 15 15 13 13 12 12 11
16 17 16 16 18 18 18 20 20 19 19 19 20 21 20 20 20 20 20 20 21 21 20 20 17 16 18 16 14 14 12 12 11 13 15 13 13 13 15 15 15 15 15 15 15 15 15 15 15 15 14 13 12 12
16 17 16 16 17 18 20 20 20 20 19 20 20 20 20 20 20 20 20 20 20 20 20 18 19 17 15 14 14 15 15 16 13 15 15 14 14 14 14 15 15 14 15 14 14 15 14 14 16 16 15 15 14 13
15 16 16 16 16 17 21 20 21 20 20 21 21 21 21 20 20 20 20 20 20 20 20 19 17 17 16 16 16 16 16 16 17 14 15 15 14 14 14 14 15 15 15 14 14 15 15 14 14 14 15 15 14 14
16 16 16 16 16 21 21 21 20 21 21 21 21 20 20 20 20 20 20 20 20 19 18 17 17 17 17 16 16 16 16 15 16 16 16 17 16 16 15 14 15 15 15 15 15 13 15 14 14 14 13 13 13 12
16 16 16 16 20 21 22 22 22 21 21 21 21 19 19 21 20 20 20 20 19 18 17 17 17 17 15 14 14 14 14 13 15 15 15 15 15 15 15 14 14 15 14 14 15 14 13 14 13 13 13 13 12 12
17 16 17 19 21 21 21 21 21 21 21 21 21 21 21 20 20 19 19 19 18 18 17 17 16 16 16 14 14 13 12 12 14 14 13 14 15 15 14 14 14 14 14 13 14 13 13 12 11 13 12 12 12 11
15 16 19 20 21 17 17 20 21 21 20 21 21 21 20 20 20 19 19 19 18 18 17 17 15 14 14 14 14 14 13 13 14 14 14 13 14 14 14 14 14 13 13 13 13 13 13 11 12 12 12 12 12 12
15 18 20 21 20 18 21 21 21 21 21 21 20 20 20 20 19 20 19 19 19 18 18 16 16 17 16 14 16 15 13 13 14 14 13 13 14 14 13 13 13 13 12 12 13 13 12 12 11 12 11 11 11 11
15 17 17 11 21 21 21 21 21 21 21 21 20 21 20 20 20 19 19 20 19 19 18 18 18 17 17 17 16 15 13 13 13 13 13 12 12 13 13 13 13 12 11 11 12 12 12 12 11 11 11 10 9 10
12 20 16 21 22 21 22 21 21 21 22 21 21 21 20 20 19 19 20 20 19 19 19 18 17 17 17 16 16 15 13 12 12 13 12 11 11 11 11 12 12 12 10 11 11 11 11 11 11 10 11 9 8 10
16 22 22 22 22 22 22 23 23 22 21 21 22 21 20 19 20 20 21 20 19 18 17 16 16 16 16 15 14 13 12 11 10 10 10 10 10 10 10 10 10 9 9 10 10 10 10 10 10 10 10 10 9 9
23 22 22 23 22 23 22 22 22 22 22 23 22 20 19 20 19 21 21 19 18 17 16 16 15 15 14 14 14 13 13 12 12 11 11 11 10 10 9 9 9 7 8 8 8 9 9 9 9 9 9 8 8 7
22 24 24 22 23 23 23 22 23 23 24 24 22 22 22 22 22 21 20 19 18 17 16 15 15 14 13 13 13 12 12 12 12 12 12 12 12 11 9 9 9 9 9 8 7 7 7 7 7 7 7 8 7 6
23 25 23 23 22 23 22 23 24 25 25 24 23 23 23 22 20 18 18 18 17 16 15 15 15 15 14 15 14 14 13 12 11 11 12 11 11 10 9 9 9 8 8 8 9 7 6 7 7 7 7 7 7 7
25 24 23 24 23 24 25 25 24 24 23 23 23 22 22 21 18 16 16 16 16 16 16 16 16 15 15 14 13 13 13 12 10 9 9 9 10 9 8 8 8 8 7 7 7 7 7 7 7 6 6 6 6 6
24 24 24 23 24 24 24 24 24 23 23 23 23 22 22 20 17 17 15 16 16 17 15 15 16 15 13 13 12 11 9 11 11 10 9 9 8 8 8 8 8 7 7 6 6 6 6 6 6 5 5 5 5 5
24 25 24 24 24 24 24 23 23 22 23 22 22 21 21 20 17 17 14 14 15 16 16 15 14 12 11 11 10 11 10 9 8 7 6 6 5 5 6 7 7 7 7 6 6 6 5 5 5 5 5 5 5 5

GFSWCAN_925_temp_036.txt.gz
Temp
9 9 9 9 9 9 9 8 9 8 7 7 7 7 7 8 8 7 8 7 6 6 7 9 10 9 10 10 9 13 14 11 14 13 13 11 15 15 19 21 20 22 21 21 22 23 23 27 29 26 25 26 26 27
9 9 9 9 9 9 8 8 8 6 7 7 7 7 7 8 8 7 8 8 7 6 8 8 8 9 9 11 10 10 12 12 13 11 12 14 14 17 18 18 22 19 20 22 23 24 26 27 26 27 27 26 25 25
9 9 9 9 9 8 7 6 7 7 7 7 7 7 7 8 8 7 8 7 7 6 7 8 11 12 11 11 12 9 12 13 13 14 13 13 13 16 16 18 18 20 20 20 21 23 23 25 26 26 26 25 26 26
9 9 9 9 8 7 6 7 7 7 7 7 7 7 8 8 8 8 8 7 7 7 7 12 12 11 11 12 11 12 12 12 12 11 10 11 12 15 14 16 17 18 18 19 19 20 22 23 24 24 24 24 24 25
9 9 9 8 7 6 7 7 7 7 7 7 7 8 8 8 9 9 8 7 7 8 9 10 10 10 10 10 11 11 11 10 9 8 8 9 10 10 13 14 15 18 17 17 18 19 19 20 22 23 23 23 24 24
9 9 9 7 6 7 7 7 7 7 7 7 8 9 9 10 9 10 10 9 8 7 7 9 12 10 9 9 9 8 8 8 8 6 6 7 8 7 8 10 14 14 14 14 14 16 16 17 19 20 20 22 23 23
9 10 9 9 9 11 11 10 7 7 8 8 9 10 10 10 10 12 11 9 8 7 8 9 12 11 10 9 8 8 7 7 6 5 5 5 5 7 7 8 9 8 8 8 9 10 11 14 15 18 19 21 21 23
10 11 12 12 12 12 11 9 7 7 8 9 10 10 11 11 10 10 9 7 8 8 8 9 12 13 9 11 10 8 7 6 6 6 5 6 5 5 7 8 10 12 12 13 13 12 11 13 15 17 19 20 19 21
10 11 13 13 13 12 10 8 8 8 10 10 10 10 10 11 12 10 8 8 8 9 9 9 9 12 11 10 9 8 7 8 7 7 6 5 6 8 8 10 10 11 12 13 14 12 15 12 13 16 18 18 18 19
10 11 14 14 13 12 12 12 12 11 11 10 9 12 13 13 10 9 7 9 10 11 10 11 10 11 10 11 11 10 9 11 12 13 8 9 9 10 10 10 10 10 11 11 13 13 11 11 14 16 17 18 18 19
11 13 14 15 14 13 14 13 12 11 10 12 14 18 12 9 10 11 14 15 16 14 14 16 14 13 13 12 13 13 14 13 14 15 14 10 10 11 12 11 10 10 10 10 10 11 13 13 14 15 16 17 17 17
13 14 15 15 15 15 15 13 12 12 16 16 16 16 13 14 16 18 16 15 15 15 19 18 16 14 16 13 12 15 16 18 17 16 11 9 11 12 13 13 12 11 10 10 10 10 10 10 11 11 11 12 11 10
14 15 16 16 16 16 16 15 14 14 14 15 17 18 19 19 14 13 13 16 16 18 20 20 16 14 18 18 16 18 19 17 19 14 10 12 12 13 13 14 14 13 12 11 10 9 9 10 9 9 9 10 10 10
15 16 17 16 16 16 17 16 15 14 12 20 20 11 19 19 21 21 20 20 21 21 21 21 18 17 20 19 19 17 18 18 15 11 12 13 13 13 14 15 15 14 14 13 11 10 9 9 9 8 8 8 9 9
16 16 17 16 16 17 17 17 16 14 19 20 21 15 20 22 23 23 23 22 22 23 22 18 20 22 20 19 18 16 16 12 11 11 13 15 14 13 13 15 15 15 15 15 15 14 12 10 9 8 7 7 7 8
17 17 16 16 17 18 18 18 18 19 21 22 22 21 22 22 22 22 21 21 22 23 23 22 20 18 18 18 17 15 13 11 12 12 12 15 13 13 14 15 15 15 15 15 15 14 15 13 11 11 10 9 8 8
18 18 17 17 18 19 19 19 21 21 21 22 22 23 22 21 21 21 21 21 22 22 21 22 19 17 18 16 15 15 14 15 14 15 13 14 14 12 14 15 15 15 15 15 14 14 15 14 14 12 12 12 12 12
18 18 18 17 18 19 21 22 22 22 21 22 22 22 22 22 21 21 21 21 21 21 21 20 20 19 16 15 16 17 17 17 16 16 16 15 15 15 15 15 15 15 15 15 14 15 15 15 15 15 14 14 13 13
15 17 17 17 17 17 23 22 22 22 22 23 23 23 23 22 22 22 21 21 21 21 21 20 19 18 17 17 16 16 17 16 16 17 17 16 15 16 15 15 15 16 16 15 15 16 15 15 15 15 14 14 13 12
17 17 17 17 16 20 23 22 22 23 22 22 23 22 21 22 22 22 22 21 21 20 19 18 18 17 17 16 16 16 16 15 15 16 16 16 16 16 16 16 15 16 16 16 15 14 15 15 15 14 14 13 13 13
16 17 17 17 20 21 23 23 22 22 23 22 23 22 22 22 23 21 21 22 20 19 18 18 18 18 16 15 15 14 15 14 14 15 15 15 15 16 16 16 15 15 15 15 15 15 14 13 14 14 14 14 13 12
18 18 18 20 22 22 23 23 22 23 22 23 23 23 22 21 22 21 21 21 20 19 18 18 17 17 17 15 15 14 14 13 14 15 15 15 16 16 16 15 15 15 15 15 14 14 13 13 12 13 13 13 13 12
17 17 20 22 22 17 17 22 22 23 21 22 22 22 22 22 21 21 20 21 20 20 19 18 16 16 15 16 16 15 14 14 15 15 15 15 15 15 15 15 15 15 14 14 14 14 14 13 13 13 12 12 12 12
17 19 21 22 22 18 23 22 23 23 23 21 21 21 21 21 21 20 20 21 21 20 18 18 18 18 17 15 18 17 15 15 15 15 15 14 14 14 14 15 15 14 13 13 14 14 13 13 13 12 12 11 11 12
15 17 17 11 21 22 23 23 23 23 22 22 22 21 21 22 20 20 21 22 21 20 19 19 18 18 18 18 18 17 15 15 14 14 14 13 13 13 14 14 14 13 12 12 13 13 13 13 12 12 11 11 11 11
12 21 15 23 23 23 23 22 23 23 23 23 23 22 22 21 20 20 21 21 21 20 19 18 18 17 17 17 17 16 15 14 13 13 13 12 12 12 12 13 13 12 11 11 12 12 12 12 12 12 11 11 10 10
15 23 24 24 24 24 23 23 24 24 23 22 23 23 18 13 18 21 20 21 21 19 18 16 15 16 16 16 15 15 14 14 12 12 12 12 12 11 11 11 11 9 10 10 10 11 11 11 11 11 10 10 9 9
24 24 23 23 23 24 21 16 14 17 16 18 24 21 19 19 20 18 21 21 20 18 16 15 14 15 16 15 15 14 14 14 14 13 13 13 12 12 11 11 10 9 10 9 9 9 9 9 9 9 9 8 8 8
23 20 22 24 23 23 18 15 14 20 22 23 23 23 23 16 12 13 20 20 19 18 16 16 16 16 16 16 15 15 15 14 14 13 13 13 13 12 11 10 10 10 10 9 7 8 7 8 7 7 8 8 8 8
24 23 23 25 24 23 21 23 24 26 26 25 25 24 21 19 19 19 20 19 18 18 17 17 17 17 17 16 16 15 15 14 13 12 12 12 12 11 10 10 9 9 9 9 8 7 7 7 7 7 8 7 7 7
25 25 25 24 24 25 24 24 26 26 25 25 18 12 16 15 13 16 18 18 18 18 18 18 17 16 16 15 15 14 14 13 12 11 10 11 10 10 9 9 9 9 8 8 8 7 7 7 7 7 7 7 6 6
25 25 25 25 25 26 26 24 24 25 25 24 23 22 22 18 17 18 16 17 18 18 17 17 16 15 14 13 13 12 11 10 10 10 9 8 8 8 8 9 9 8 8 8 8 7 7 7 6 6 6 6 6 6
26 25 26 25 25 25 25 25 24 24 24 23 15 15 21 20 18 18 16 16 16 17 16 15 15 14 13 13 12 12 10 7 7 7 7 6 5 5 6 7 7 7 8 7 6 6 6 6 6 6 6 6 6 6

GFSWCAN_925_temp_042.txt.gz
Temp
9 9 9 9 9 8 7 6 6 6 6 6 7 7 7 8 8 7 8 8 7 6 7 8 9 8 8 7 8 9 8 8 8 7 9 9 9 10 10 11 11 11 12 12 13 16 14 16 16 16 16 19 19 19
9 10 10 9 8 8 6 6 7 7 6 6 7 7 7 8 8 8 7 8 7 6 7 7 8 8 7 7 8 8 8 9 9 7 7 9 9 10 11 11 13 11 10 10 11 13 15 16 14 15 16 16 16 17
9 10 10 9 8 6 6 7 7 7 7 7 7 8 8 8 8 8 8 8 7 7 7 7 9 9 9 8 8 8 9 8 8 8 6 8 10 9 8 11 12 13 13 11 10 15 13 14 15 15 14 13 14 15
10 10 9 9 7 7 7 7 7 7 7 7 8 8 8 8 8 8 8 8 8 7 7 9 10 10 9 9 8 9 9 9 8 8 7 7 9 7 8 9 9 10 11 9 10 11 11 14 14 13 13 13 14 14
11 11 10 10 10 11 10 7 7 7 7 7 7 7 8 9 9 8 8 8 8 7 7 8 9 10 10 9 8 8 8 8 7 7 7 7 7 7 6 7 10 9 9 9 9 10 10 10 11 12 12 12 13 13
11 11 11 10 11 12 10 8 7 7 7 9 10 10 10 10 9 9 8 8 8 8 7 8 10 10 9 9 8 7 7 6 6 6 6 6 6 7 6 7 8 9 9 9 10 11 11 10 10 11 11 11 12 13
12 11 11 11 12 13 12 10 8 8 10 11 11 10 10 10 10 9 9 9 8 8 6 9 10 11 9 9 7 7 6 5 6 5 5 5 6 6 6 7 7 9 9 9 10 11 10 10 9 11 12 13 14 14
12 11 12 13 13 13 12 13 13 12 11 11 11 11 11 10 10 10 9 8 8 8 8 9 11 11 10 9 9 7 6 6 6 6 6 6 5 5 6 8 10 9 9 9 10 10 10 10 10 10 11 11 12 12
12 12 13 15 14 13 13 14 13 13 12 11 10 10 10 10 10 10 9 9 8 8 9 10 11 12 9 8 7 8 6 9 6 7 7 6 6 8 8 10 10 9 8 9 10 10 10 9 10 11 11 11 11 11
12 13 14 15 15 14 14 14 13 13 12 11 11 10 10 11 10 9 8 8 8 7 7 10 9 11 10 10 11 10 8 10 10 9 7 7 8 10 10 10 9 9 9 9 9 9 8 9 9 11 12 11 10 11
13 13 15 16 15 15 15 14 14 13 12 11 10 10 10 10 10 9 11 10 10 10 9 9 9 11 10 11 11 10 11 11 7 9 11 9 9 10 10 9 10 9 9 8 9 8 8 8 8 9 10 10 10 10
14 15 15 16 16 16 15 15 14 13 13 13 12 11 10 9 10 12 12 12 10 11 11 11 11 11 11 11 11 12 11 11 11 9 10 9 9 9 8 9 10 9 9 9 8 8 8 8 7 8 8 8 8 8
15 16 16 17 17 16 15 15 15 14 13 13 13 13 12 11 13 14 10 13 13 13 15 15 13 11 11 10 11 11 14 13 10 9 9 10 10 9 8 9 9 10 9 9 9 8 8 8 7 7 7 7 7 7
16 17 17 17 17 16 16 16 16 15 13 11 13 12 14 14 15 15 13 13 13 14 14 14 13 13 11 12 12 14 12 11 10 11 9 10 10 8 8 9 9 10 11 9 9 8 8 7 7 7 7 6 6 6
16 17 18 17 17 17 17 17 16 14 13 12 15 14 16 15 14 15 15 14 14 13 13 13 13 12 13 14 12 12 12 11 11 11 10 9 9 8 8 9 9 9 10 10 9 9 8 7 7 6 6 6 6 5
17 17 17 16 18 18 18 18 16 15 14 15 17 17 15 15 14 14 14 13 13 13 12 13 14 14 14 12 13 12 10 9 10 10 9 9 10 9 9 9 9 10 10 10 9 9 9 8 8 7 7 6 6 6
17 17 17 17 18 19 19 19 16 14 17 19 18 16 14 14 14 14 14 14 14 13 14 13 15 15 12 13 13 11 10 9 9 8 8 9 10 9 9 10 10 11 11 11 11 10 10 9 9 8 8 8 8 7
16 16 17 16 18 19 18 18 18 19 19 17 16 16 15 14 15 15 14 13 13 13 13 15 13 13 12 13 11 10 9 8 7 8 8 10 10 11 11 10 12 12 12 12 12 11 10 10 10 9 10 10 10 9
17 18 18 17 17 16 15 19 19 18 18 18 16 15 15 15 15 15 14 15 15 14 12 12 13 12 10 9 9 9 8 8 8 8 8 11 12 12 12 13 13 12 12 12 12 11 12 11 11 12 11 11 10 10
18 18 17 17 16 15 17 17 20 17 18 16 16 16 15 15 15 14 14 14 13 12 13 13 12 10 9 9 8 8 8 8 8 8 8 8 12 13 12 13 12 12 12 12 13 13 12 12 11 12 11 11 10 9
17 17 17 17 17 15 15 16 17 17 16 16 16 16 16 15 15 15 14 12 13 12 12 11 10 10 11 12 13 12 10 10 8 7 8 8 11 12 12 13 13 12 11 11 10 11 11 10 10 11 11 10 10 9
17 17 17 18 17 17 16 18 16 16 16 16 16 16 16 16 14 14 13 14 12 12 11 10 10 10 10 10 11 13 14 14 13 12 12 12 8 9 10 11 11 10 10 10 11 11 11 11 12 11 11 10 9 9
17 17 17 18 18 12 15 18 18 17 17 17 16 19 16 15 13 12 15 14 13 12 13 13 14 15 13 14 13 13 14 12 10 11 11 11 11 12 11 11 11 10 9 11 11 12 11 11 11 11 10 9 9 8
16 16 16 16 16 14 17 17 17 17 16 18 18 18 15 12 12 12 13 12 11 12 12 13 14 12 12 12 9 11 13 12 12 12 12 11 9 9 10 10 11 10 10 11 11 11 11 11 10 10 10 9 8 8
11 12 13 9 14 18 19 19 17 16 17 16 18 17 13 11 12 12 12 12 12 13 13 13 12 10 10 10 10 12 13 13 11 8 11 11 11 10 9 10 10 10 10 10 10 10 10 9 9 9 9 8 8 8
10 15 15 18 19 19 16 16 16 15 14 15 15 13 12 12 13 13 11 11 12 13 11 11 11 10 10 12 10 10 12 13 13 10 12 11 11 11 7 6 7 9 9 9 9 9 9 9 9 9 8 8 8 8
11 17 17 15 16 15 14 14 14 13 15 15 15 15 14 12 10 12 10 10 10 13 15 15 14 13 11 12 14 14 14 13 13 12 12 11 11 11 10 9 8 8 9 9 8 8 8 8 8 8 8 8 8 7
17 18 19 18 16 15 14 14 14 15 16 14 14 12 12 12 11 11 10 14 14 15 15 15 15 15 14 15 15 14 14 14 13 12 11 11 11 10 10 9 9 9 8 8 8 8 7 7 7 7 7 7 7 7
17 18 19 19 16 14 14 14 15 15 14 14 13 13 11 10 11 11 14 15 15 15 14 14 15 15 14 13 12 12 12 12 11 9 8 8 9 9 9 9 8 8 8 7 7 7 7 7 7 7 7 7 7 7
19 19 19 20 20 18 16 14 15 15 13 12 11 11 11 11 13 14 16 16 15 14 13 13 13 13 12 10 9 9 9 10 10 9 6 6 7 8 9 9 8 8 7 7 7 7 7 7 7 7 7 6 6 6
19 20 19 19 20 20 18 16 15 14 13 11 12 11 11 11 14 16 16 16 14 14 13 13 13 13 12 10 9 8 6 7 8 8 7 7 7 7 7 7 8 8 7 7 7 7 7 7 6 6 6 6 6 6
19 19 18 18 18 19 19 17 15 14 14 13 12 12 12 12 13 13 16 15 14 13 13 13 12 10 10 10 9 8 8 7 7 7 6 6 6 6 6 6 7 6 6 6 5 5 5 6 6 6 6 6 6 6
21 20 19 20 20 22 20 19 18 14 14 13 13 13 13 14 14 13 15 15 14 14 13 12 12 11 10 9 8 8 7 7 7 6 5 5 5 5 5 6 6 5 5 5 5 5 6 6 6 6 6 5 5 5

GFSWCAN_925_temp_045.txt.gz
Temp
10 9 9 9 9 8 7 6 6 6 6 7 7 7 8 8 8 7 8 8 7 6 7 8 8 8 8 7 7 8 7 8 7 8 8 8 9 9 9 9 10 10 11 11 12 14 15 14 15 15 13 16 15 14
10 9 9 9 9 8 7 7 7 7 7 7 7 8 8 8 8 8 8 8 7 7 8 8 8 8 7 7 8 8 8 8 7 7 7 8 9 9 9 10 10 11 9 10 10 12 13 13 13 13 14 14 13 13
10 9 10 10 9 10 9 7 7 6 7 7 8 8 8 8 8 8 8 8 7 7 7 7 9 9 9 8 7 8 8 9 8 8 7 7 9 8 9 9 11 10 11 9 9 11 11 12 13 13 12 12 13 14
11 10 10 10 10 10 10 7 7 6 7 7 7 7 8 9 9 9 8 8 7 6 6 8 10 10 9 9 8 8 8 8 8 5 5 7 8 7 8 8 9 9 9 9 10 11 11 13 13 13 12 11 12 13
12 11 10 11 11 12 10 7 7 7 7 8 8 8 9 9 9 9 9 8 7 7 7 7 8 10 9 9 8 8 7 7 7 7 7 7 7 7 7 7 9 9 9 9 9 10 10 10 11 12 11 10 11 11
12 11 11 11 12 12 11 7 7 7 9 10 10 10 10 10 9 9 7 8 8 8 6 9 9 9 8 8 8 7 6 6 6 6 6 6 6 6 7 9 9 9 9 9 9 10 10 11 11 11 11 11 10 11
13 12 11 11 13 13 12 10 9 11 11 11 10 10 10 9 9 9 8 9 8 8 7 9 9 9 9 8 6 6 6 5 5 5 5 6 6 6 6 8 9 9 9 9 10 10 10 11 10 10 11 12 12 11
12 12 12 12 14 14 13 13 12 12 12 11 11 10 10 10 9 9 9 9 8 8 7 10 11 9 10 8 8 5 6 5 6 6 6 6 6 5 8 9 9 9 9 9 9 10 9 10 10 10 10 11 11 11
12 13 12 14 14 14 14 13 13 12 12 11 11 10 10 9 9 10 9 8 8 8 7 8 11 12 8 7 6 6 5 8 6 7 7 6 6 8 8 8 9 9 8 8 9 9 9 8 9 10 10 10 11 11
12 14 14 14 15 14 14 14 13 13 12 11 11 10 9 10 10 9 8 8 8 6 5 8 8 11 10 10 11 10 9 11 11 9 7 8 7 8 9 8 8 9 8 8 8 8 8 8 8 8 8 10 10 11
13 14 15 15 15 15 14 14 13 13 12 11 10 9 9 9 9 9 10 9 9 10 7 7 8 10 10 11 11 10 10 10 7 10 10 9 9 8 8 8 8 8 8 7 7 7 7 7 7 7 7 7 8 8
13 15 15 16 16 15 14 14 14 13 13 12 11 10 9 8 9 10 10 10 9 10 10 10 11 11 10 10 10 10 11 10 10 8 9 9 8 8 7 8 7 8 8 8 8 7 7 7 7 7 7 6 6 6
14 15 16 17 17 16 15 15 15 13 12 11 11 11 10 10 11 14 10 13 12 12 12 12 13 10 9 9 11 11 13 10 8 10 9 8 8 8 7 7 8 9 9 8 7 7 7 7 7 7 6 5 5 5
15 16 17 17 16 16 16 16 15 14 12 11 12 11 13 13 14 13 12 11 11 11 11 10 12 11 9 11 10 12 10 10 9 10 8 7 8 8 7 7 8 7 9 9 8 8 7 7 6 6 6 6 5 5
16 17 18 16 16 16 17 17 16 14 13 12 12 13 15 14 12 12 11 11 12 10 10 11 11 11 11 13 10 10 11 8 10 9 8 7 8 7 7 8 7 7 8 8 8 7 8 7 7 6 6 6 6 5
17 17 16 16 16 17 17 16 14 13 12 12 13 16 13 14 13 12 13 12 11 10 10 10 12 12 12 11 12 11 9 7 9 9 7 7 8 8 8 8 7 8 8 8 9 8 8 8 7 7 7 6 6 6
17 17 17 16 16 17 17 16 15 12 14 17 15 13 12 13 13 12 11 12 11 11 12 11 14 14 10 11 12 9 8 8 7 6 6 6 7 7 8 8 9 9 9 9 9 9 9 9 9 8 7 9 7 7
15 16 16 16 17 17 15 15 15 16 18 15 16 14 12 12 13 12 12 11 12 11 11 14 10 12 12 12 10 8 7 6 5 5 6 7 7 9 9 8 10 10 10 10 10 10 9 9 8 7 8 9 9 8
17 18 17 17 16 15 14 16 16 16 16 14 14 12 13 13 11 12 12 12 12 10 10 10 12 11 10 7 8 7 6 5 6 6 6 9 9 9 9 10 11 10 11 11 10 10 9 9 9 10 10 9 8 8
18 17 17 16 16 15 15 14 16 15 16 15 13 14 14 14 13 12 11 11 11 11 12 12 11 9 8 8 6 7 6 5 6 7 7 8 10 10 10 10 10 10 10 10 10 10 10 10 10 10 9 9 9 8
17 16 16 16 15 14 13 13 15 13 14 15 13 14 14 12 13 13 13 11 10 10 11 9 10 10 9 10 11 10 8 8 7 7 7 7 10 9 10 10 10 9 9 9 9 8 10 9 9 10 9 9 8 8
16 16 16 16 15 14 13 15 15 13 15 14 13 14 14 13 12 12 11 12 11 10 10 10 10 10 8 9 10 12 13 10 10 9 9 8 6 6 7 9 9 8 9 9 9 9 10 9 10 9 9 8 8 8
16 16 16 16 16 13 14 15 17 15 17 14 14 16 13 12 11 11 13 11 11 10 11 12 12 12 11 12 12 11 11 12 9 9 9 8 8 8 8 9 9 9 8 8 10 10 10 9 10 9 8 8 8 8
15 15 15 15 14 14 14 16 14 15 14 15 15 17 12 11 11 12 12 11 10 11 11 11 11 10 10 10 8 9 11 12 10 10 9 9 7 8 8 8 9 10 9 10 10 10 9 9 8 8 8 8 8 7
10 12 13 10 13 16 17 16 16 15 15 14 15 13 12 11 11 11 12 11 10 11 10 12 12 9 9 7 8 10 12 12 10 7 9 10 9 9 9 9 9 9 9 10 9 8 8 8 8 8 7 7 7 7
10 13 13 17 16 16 16 16 15 14 13 14 13 12 12 12 12 12 12 10 11 10 10 10 9 9 8 9 7 8 11 12 11 9 9 10 10 9 6 5 5 8 9 9 9 8 8 8 8 7 7 7 7 7
11 15 15 13 14 14 14 13 12 13 14 15 12 12 12 12 12 10 9 9 9 11 13 13 12 10 9 10 12 14 14 12 11 11 11 10 10 10 10 8 7 8 8 8 9 9 8 8 8 7 7 7 7 7
14 15 17 16 15 13 15 13 13 14 14 12 11 11 12 12 12 9 9 13 13 13 13 13 12 11 11 11 12 13 12 11 10 10 10 10 10 9 9 9 8 8 8 7 7 7 7 7 7 7 7 7 6 6
14 14 15 16 14 13 13 13 13 12 11 11 12 11 11 10 10 11 14 14 12 12 12 11 10 11 10 10 10 10 9 9 9 7 7 6 7 8 8 8 8 8 7 7 7 7 7 7 7 6 6 6 6 6
16 14 17 17 17 16 15 12 13 12 11 11 10 10 9 10 13 13 13 13 12 11 11 11 11 11 8 7 6 7 8 8 9 8 4 4 5 6 7 7 8 7 7 7 7 6 6 6 6 6 6 6 6 6
15 16 18 17 17 15 13 12 12 11 11 11 10 10 10 10 13 13 13 13 13 13 12 10 10 10 8 7 6 6 5 6 6 6 6 6 6 6 7 7 7 7 6 6 6 6 6 6 6 6 6 5 5 5
16 17 16 17 15 13 14 14 13 12 11 11 11 11 10 11 12 10 12 12 12 11 11 10 9 8 8 8 8 7 7 6 6 5 5 5 5 6 6 6 6 6 6 6 6 5 6 6 5 5 5 5 5 5
17 16 16 17 15 14 14 14 14 13 12 12 11 11 11 11 13 10 12 12 13 12 11 10 9 9 9 9 8 7 7 6 5 5 5 5 5 5 5 5 5 5 5 5 5 5 5 5 5 5 5 5 4 4

GFSWCAN_925_temp_048.txt.gz
Temp
11 10 10 10 9 10 7 7 7 7 7 7 7 8 8 8 8 8 8 8 7 7 8 8 8 8 8 7 7 8 8 7 7 8 8 8 8 8 9 9 10 9 9 10 10 12 14 11 14 14 13 13 13 13
12 11 11 10 10 10 9 7 7 7 7 7 7 8 8 8 8 8 8 7 7 7 7 8 8 9 7 7 8 8 8 8 8 8 7 7 8 8 8 10 8 10 9 10 10 10 9 10 11 11 11 11 12 13
12 11 11 10 11 11 10 7 7 7 7 7 8 9 9 9 8 8 8 8 7 6 5 7 8 9 8 8 7 8 8 8 8 7 7 7 8 7 9 9 10 9 9 9 8 9 10 11 12 12 12 11 12 13
12 12 11 11 11 11 9 7 7 7 7 7 8 8 8 9 8 8 8 8 7 5 6 8 10 9 8 8 8 8 8 8 7 6 7 7 8 7 8 7 9 9 9 8 8 10 11 12 12 11 12 12 12 13
12 12 12 12 12 12 10 7 7 7 7 8 10 8 9 9 9 8 8 8 8 7 7 7 8 9 9 9 7 7 7 6 6 7 6 7 7 6 7 7 8 9 9 9 9 10 9 10 11 11 11 11 11 11
12 11 12 12 13 13 12 10 10 10 10 10 11 11 10 10 9 9 7 8 8 7 7 8 8 8 8 8 7 7 6 5 5 6 6 6 6 7 7 8 8 9 9 8 9 9 10 10 11 11 10 11 11 11
12 12 11 12 14 14 13 13 12 11 11 10 11 11 10 9 9 9 8 9 8 7 6 9 9 8 8 7 6 5 5 4 5 6 6 6 6 6 6 8 9 9 9 9 9 9 9 9 9 10 10 10 10 11
13 12 12 13 14 14 13 13 13 12 11 11 11 11 11 10 9 9 9 8 8 8 6 9 11 10 8 7 7 5 5 5 5 6 6 6 6 6 8 8 9 9 9 9 9 9 9 9 9 9 9 10 11 11
13 13 14 14 14 14 14 13 13 12 11 11 10 10 10 9 9 9 9 8 8 7 7 8 9 12 9 8 7 6 5 8 6 7 7 7 6 8 8 8 8 9 8 8 9 8 8 8 8 8 8 8 9 10
13 13 14 14 14 14 14 14 13 12 11 11 10 10 9 9 9 9 8 8 8 7 6 8 7 11 10 10 10 9 8 11 9 9 8 7 7 8 8 7 7 8 8 7 8 7 7 8 7 7 7 7 7 7
13 14 15 15 15 15 14 14 14 12 11 11 9 9 9 9 9 9 10 9 8 10 7 7 8 9 9 11 11 10 10 10 10 10 10 8 6 8 8 7 7 8 8 7 6 7 7 7 7 7 7 6 6 6
13 15 15 15 15 15 14 14 14 12 12 11 10 9 9 8 9 10 10 9 8 10 9 10 10 10 9 9 10 10 11 10 10 7 10 7 8 8 7 8 7 7 8 7 7 6 6 6 6 6 6 6 6 5
14 15 15 16 16 15 15 15 14 12 11 11 10 10 10 10 11 14 10 12 11 11 11 11 11 10 9 8 11 11 12 9 7 10 9 7 7 8 7 7 8 8 8 8 7 7 6 6 6 5 5 5 5 5
15 15 16 16 15 15 15 15 15 12 11 10 12 10 13 13 13 12 11 11 11 10 10 9 10 10 8 11 9 12 9 9 9 10 7 7 7 7 7 7 7 7 8 8 8 7 7 6 6 6 6 5 5 5
15 16 16 15 15 15 16 16 15 12 12 12 11 12 13 12 11 11 10 10 10 9 9 10 10 9 10 11 9 9 11 8 7 7 8 7 7 7 7 7 7 7 7 7 8 7 7 7 6 6 7 7 6 5
16 16 15 15 15 16 16 15 12 12 11 11 11 14 11 12 13 12 11 11 9 9 8 9 11 12 11 10 12 11 10 6 8 7 7 6 6 7 7 7 7 7 8 8 8 8 8 8 7 7 7 7 7 7
16 16 16 15 15 16 15 14 13 11 13 14 13 10 12 12 13 12 10 11 9 11 12 10 14 14 9 11 11 8 8 8 6 6 5 5 5 6 6 7 8 8 9 9 8 8 8 8 8 7 6 8 7 7
14 14 13 13 15 14 13 13 13 14 15 13 14 15 11 11 12 11 10 9 11 10 10 14 10 13 12 12 10 8 7 6 5 5 5 5 6 7 7 6 8 9 9 9 9 9 8 8 7 7 7 8 8 8
15 16 16 15 15 15 13 14 13 15 14 13 11 11 11 12 10 10 10 10 9 9 9 9 12 10 10 7 9 8 7 5 6 6 5 7 8 7 8 8 9 9 9 9 9 8 8 9 8 7 8 8 7 7
16 16 15 16 15 15 14 13 14 13 15 14 11 12 12 12 10 10 10 10 10 11 12 11 11 10 10 9 7 8 6 5 6 7 7 7 8 8 8 7 8 8 9 8 9 9 8 8 8 8 8 7 7 7
15 15 15 15 15 14 12 12 13 12 12 13 12 12 12 11 11 11 11 9 11 10 10 10 10 9 9 9 9 9 7 7 6 7 7 6 8 7 8 8 8 7 8 8 8 8 8 8 8 8 8 8 7 7
15 15 15 15 14 12 11 13 13 12 13 14 13 11 12 12 11 11 9 11 11 10 9 9 8 9 9 9 10 9 10 9 9 8 7 7 6 5 6 7 8 7 8 8 8 8 8 9 9 8 8 7 7 8
15 15 15 14 15 12 13 14 15 14 16 14 12 14 11 11 10 10 11 10 10 10 9 10 10 11 9 10 10 10 11 10 7 8 8 7 7 7 7 8 8 8 8 7 7 8 8 9 9 8 7 7 7 7
14 14 14 14 13 13 13 15 13 14 13 13 13 13 12 10 9 10 11 10 10 9 10 10 11 9 9 9 7 8 10 10 9 8 8 8 6 6 7 8 8 8 9 8 8 8 9 9 8 7 7 7 7 6
10 13 12 9 12 15 16 15 15 14 14 13 13 12 11 9 10 10 11 10 9 9 10 9 8 8 8 7 7 8 9 11 10 7 9 8 7 6 6 7 8 8 9 9 7 7 7 7 8 8 8 7 6 6
10 13 13 16 15 15 15 16 15 14 13 14 12 11 10 10 11 12 11 10 9 9 9 8 8 8 8 7 7 8 11 12 10 8 9 9 8 8 6 6 6 7 8 8 8 7 7 7 7 7 7 7 6 6
11 15 13 11 13 13 12 12 12 12 14 14 12 11 12 12 12 11 8 9 8 10 10 10 9 8 7 8 9 12 12 11 11 11 10 10 9 8 8 7 7 7 8 8 8 7 7 7 7 7 6 6 6 6
13 13 16 15 13 12 14 12 13 13 13 11 11 12 13 13 12 9 8 12 11 11 10 10 11 11 11 10 9 9 9 8 9 9 10 9 8 8 8 8 7 7 7 7 7 7 7 7 7 6 6 6 6 6
13 13 14 15 14 13 13 13 13 11 11 10 12 12 11 9 9 10 12 11 10 10 9 9 9 9 9 9 8 8 8 8 8 7 6 6 6 6 6 6 5 5 6 6 6 6 6 7 6 6 6 6 6 6
15 12 15 15 15 16 14 11 12 10 10 10 9 9 9 9 11 12 12 12 13 10 10 10 9 9 7 7 7 7 7 7 7 6 4 4 4 5 7 7 5 6 5 6 6 6 6 6 6 6 6 5 5 5
13 13 16 15 16 13 12 10 10 10 10 10 9 9 10 10 12 12 12 11 11 11 10 8 7 8 8 7 7 6 4 5 5 5 5 6 6 6 6 7 6 6 6 6 6 6 6 6 5 5 5 5 5 5
13 15 15 16 15 12 12 13 12 11 11 11 11 10 10 10 11 9 11 11 11 10 9 8 8 7 7 7 7 6 6 5 5 5 5 5 5 5 5 5 5 5 5 5 5 5 5 5 5 5 5 4 4 4
15 14 14 13 13 13 13 13 13 12 11 11 11 11 11 11 12 9 10 11 12 11 10 9 9 8 7 7 7 6 5 5 5 5 5 5 5 5 5 5 5 5 5 5 5 5 5 5 5 4 4 4 4 4